Time,TemperatureF,DewpointF,PressureIn,WindDirection,WindDirectionDegrees,WindSpeedMPH,WindSpeedGustMPH,Humidity,HourlyPrecipIn,Conditions,Clouds,dailyrainin,SoftwareType,DateUTC
2013-04-04 00:01:00,39.7,17.3,30.39,East,96,1.0,1.0,40,0.00,,,0.00,Wunderground v.1.15,2013-04-04 04:01:00,
2013-04-04 00:02:00,39.7,17.3,30.39,ESE,109,1.0,4.0,40,0.00,,,0.00,Wunderground v.1.15,2013-04-04 04:02:00,
2013-04-04 00:03:00,39.7,17.3,30.39,ESE,107,1.0,9.0,40,0.00,,,0.00,Wunderground v.1.15,2013-04-04 04:03:00,
2013-04-04 00:05:00,39.7,17.3,30.39,East,97,1.0,9.0,40,0.00,,,0.00,Wunderground v.1.15,2013-04-04 04:05:00,
2013-04-04 00:08:00,39.7,17.9,30.39,SE,128,1.0,9.0,41,0.00,,,0.00,Wunderground v.1.15,2013-04-04 04:08:00,
2013-04-04 00:09:00,39.7,17.9,30.39,East,97,1.0,9.0,41,0.00,,,0.00,Wunderground v.1.15,2013-04-04 04:09:00,
2013-04-04 00:13:00,39.6,17.2,30.39,East,99,1.0,9.0,40,0.00,,,0.00,Wunderground v.1.15,2013-04-04 04:13:00,
2013-04-04 00:14:00,39.6,17.2,30.39,ESE,113,1.0,9.0,40,0.00,,,0.00,Wunderground v.1.15,2013-04-04 04:14:00,
2013-04-04 00:15:00,39.6,17.2,30.39,East,101,1.0,9.0,40,0.00,,,0.00,Wunderground v.1.15,2013-04-04 04:15:00,
2013-04-04 00:16:00,39.7,17.3,30.39,East,95,1.0,9.0,40,0.00,,,0.00,Wunderground v.1.15,2013-04-04 04:16:00,
2013-04-04 00:18:00,39.7,17.3,30.39,East,94,1.0,9.0,40,0.00,,,0.00,Wunderground v.1.15,2013-04-04 04:18:00,
2013-04-04 00:21:00,39.6,17.8,30.39,ESE,103,1.0,9.0,41,0.00,,,0.00,Wunderground v.1.15,2013-04-04 04:21:00,
2013-04-04 00:22:00,39.6,17.8,30.39,East,101,1.0,9.0,41,0.00,,,0.00,Wunderground v.1.15,2013-04-04 04:22:00,
2013-04-04 00:24:00,39.6,17.8,30.39,East,91,1.0,9.0,41,0.00,,,0.00,Wunderground v.1.15,2013-04-04 04:24:00,
2013-04-04 00:28:00,39.5,17.7,30.38,ESE,113,1.0,9.0,41,0.00,,,0.00,Wunderground v.1.15,2013-04-04 04:28:00,
2013-04-04 00:29:00,39.5,17.7,30.38,East,101,1.0,9.0,41,0.00,,,0.00,Wunderground v.1.15,2013-04-04 04:29:00,
2013-04-04 00:35:00,39.5,17.1,30.38,ESE,115,2.0,9.0,40,0.00,,,0.00,Wunderground v.1.15,2013-04-04 04:35:00,
2013-04-04 00:36:00,39.6,17.2,30.38,East,89,2.0,9.0,40,0.00,,,0.00,Wunderground v.1.15,2013-04-04 04:36:00,
2013-04-04 00:38:00,39.6,17.8,30.38,East,80,2.0,9.0,41,0.00,,,0.00,Wunderground v.1.15,2013-04-04 04:38:00,
2013-04-04 00:40:00,39.6,17.2,30.38,East,88,2.0,9.0,40,0.00,,,0.00,Wunderground v.1.15,2013-04-04 04:40:00,
2013-04-04 00:41:00,39.5,17.1,30.38,ESE,110,2.0,2.0,40,0.00,,,0.00,Wunderground v.1.15,2013-04-04 04:41:00,
2013-04-04 00:43:00,39.5,17.1,30.38,ESE,103,2.0,9.0,40,0.00,,,0.00,Wunderground v.1.15,2013-04-04 04:43:00,
2013-04-04 00:46:00,39.5,17.1,30.38,ESE,104,1.0,9.0,40,0.00,,,0.00,Wunderground v.1.15,2013-04-04 04:46:00,
2013-04-04 00:47:00,39.5,17.1,30.38,ESE,111,1.0,9.0,40,0.00,,,0.00,Wunderground v.1.15,2013-04-04 04:47:00,
2013-04-04 00:49:00,39.5,17.1,30.38,East,94,1.0,9.0,40,0.00,,,0.00,Wunderground v.1.15,2013-04-04 04:49:00,
2013-04-04 00:52:00,39.5,17.1,30.38,East,92,1.0,9.0,40,0.00,,,0.00,Wunderground v.1.15,2013-04-04 04:52:00,
2013-04-04 00:53:00,39.5,17.1,30.38,ESE,105,1.0,9.0,40,0.00,,,0.00,Wunderground v.1.15,2013-04-04 04:53:00,
2013-04-04 00:54:00,39.5,17.7,30.38,East,97,1.0,9.0,41,0.00,,,0.00,Wunderground v.1.15,2013-04-04 04:54:00,
2013-04-04 00:59:00,39.4,17.6,30.38,East,86,1.0,9.0,41,0.00,,,0.00,Wunderground v.1.15,2013-04-04 04:59:00,
2013-04-04 01:01:00,39.4,17.6,30.38,East,96,1.0,1.0,41,0.00,,,0.00,Wunderground v.1.15,2013-04-04 05:01:00,
2013-04-04 01:02:00,39.3,18.1,30.38,ESE,109,1.0,9.0,42,0.00,,,0.00,Wunderground v.1.15,2013-04-04 05:02:00,
2013-04-04 01:03:00,39.3,18.1,30.38,East,80,1.0,9.0,42,0.00,,,0.00,Wunderground v.1.15,2013-04-04 05:03:00,
2013-04-04 01:05:00,39.3,17.5,30.38,East,89,1.0,9.0,41,0.00,,,0.00,Wunderground v.1.15,2013-04-04 05:05:00,
2013-04-04 01:09:00,39.2,17.4,30.38,East,101,1.0,9.0,41,0.00,,,0.00,Wunderground v.1.15,2013-04-04 05:09:00,
2013-04-04 01:10:00,39.3,17.5,30.38,ESE,107,1.0,9.0,41,0.00,,,0.00,Wunderground v.1.15,2013-04-04 05:10:00,
2013-04-04 01:15:00,39.3,17.5,30.37,ESE,105,1.0,9.0,41,0.00,,,0.00,Wunderground v.1.15,2013-04-04 05:15:00,
2013-04-04 01:16:00,39.2,17.4,30.37,ESE,102,1.0,9.0,41,0.00,,,0.00,Wunderground v.1.15,2013-04-04 05:16:00,
2013-04-04 01:17:00,39.2,17.4,30.37,East,79,1.0,9.0,41,0.00,,,0.00,Wunderground v.1.15,2013-04-04 05:17:00,
2013-04-04 01:18:00,39.2,17.4,30.37,ESE,121,1.0,9.0,41,0.00,,,0.00,Wunderground v.1.15,2013-04-04 05:18:00,
2013-04-04 01:20:00,39.1,17.4,30.37,East,96,0.0,9.0,41,0.00,,,0.00,Wunderground v.1.15,2013-04-04 05:20:00,
2013-04-04 01:22:00,39.1,17.4,30.37,ESE,109,0.0,9.0,41,0.00,,,0.00,Wunderground v.1.15,2013-04-04 05:22:00,
2013-04-04 01:25:00,39.1,17.4,30.37,East,91,0.0,9.0,41,0.00,,,0.00,Wunderground v.1.15,2013-04-04 05:25:00,
2013-04-04 01:26:00,39.1,17.4,30.37,ENE,73,0.0,9.0,41,0.00,,,0.00,Wunderground v.1.15,2013-04-04 05:26:00,
2013-04-04 01:27:00,39.1,17.4,30.37,ESE,109,0.0,9.0,41,0.00,,,0.00,Wunderground v.1.15,2013-04-04 05:27:00,
2013-04-04 01:32:00,39.1,17.4,30.37,ESE,109,0.0,9.0,41,0.00,,,0.00,Wunderground v.1.15,2013-04-04 05:32:00,
2013-04-04 01:33:00,39.1,17.4,30.37,ESE,103,0.0,9.0,41,0.00,,,0.00,Wunderground v.1.15,2013-04-04 05:33:00,
2013-04-04 01:34:00,39.1,17.4,30.37,East,99,1.0,9.0,41,0.00,,,0.00,Wunderground v.1.15,2013-04-04 05:34:00,
2013-04-04 01:36:00,39.2,17.4,30.37,East,99,1.0,9.0,41,0.00,,,0.00,Wunderground v.1.15,2013-04-04 05:36:00,
2013-04-04 01:37:00,39.2,17.4,30.37,East,94,1.0,9.0,41,0.00,,,0.00,Wunderground v.1.15,2013-04-04 05:37:00,
2013-04-04 01:38:00,39.1,17.4,30.37,East,95,1.0,9.0,41,0.00,,,0.00,Wunderground v.1.15,2013-04-04 05:38:00,
2013-04-04 01:43:00,39.2,17.4,30.36,ENE,71,1.0,9.0,41,0.00,,,0.00,Wunderground v.1.15,2013-04-04 05:43:00,
2013-04-04 01:46:00,39.2,17.4,30.36,East,100,1.0,9.0,41,0.00,,,0.00,Wunderground v.1.15,2013-04-04 05:46:00,
2013-04-04 01:49:00,39.1,17.9,30.36,East,91,1.0,9.0,42,0.00,,,0.00,Wunderground v.1.15,2013-04-04 05:49:00,
2013-04-04 01:50:00,39.2,17.4,30.36,ESE,111,1.0,9.0,41,0.00,,,0.00,Wunderground v.1.15,2013-04-04 05:50:00,
2013-04-04 01:52:00,39.1,17.4,30.36,East,99,1.0,3.0,41,0.00,,,0.00,Wunderground v.1.15,2013-04-04 05:52:00,
2013-04-04 01:53:00,39.2,16.9,30.36,SE,136,1.0,9.0,40,0.00,,,0.00,Wunderground v.1.15,2013-04-04 05:53:00,
2013-04-04 01:55:00,39.2,16.9,30.36,ESE,113,1.0,9.0,40,0.00,,,0.00,Wunderground v.1.15,2013-04-04 05:55:00,
2013-04-04 01:58:00,39.3,17.0,30.36,ENE,75,1.0,9.0,40,0.00,,,0.00,Wunderground v.1.15,2013-04-04 05:58:00,
2013-04-04 02:01:00,39.3,17.5,30.36,ESE,103,1.0,9.0,41,0.00,,,0.00,Wunderground v.1.15,2013-04-04 06:01:00,
2013-04-04 02:04:00,39.3,17.0,30.36,ESE,105,1.0,9.0,40,0.00,,,0.00,Wunderground v.1.15,2013-04-04 06:04:00,
2013-04-04 02:05:00,39.3,17.0,30.36,East,100,1.0,9.0,40,0.00,,,0.00,Wunderground v.1.15,2013-04-04 06:05:00,
2013-04-04 02:08:00,39.2,18.0,30.36,NE,53,0.0,9.0,42,0.00,,,0.00,Wunderground v.1.15,2013-04-04 06:08:00,
2013-04-04 02:09:00,39.2,17.4,30.36,East,90,0.0,9.0,41,0.00,,,0.00,Wunderground v.1.15,2013-04-04 06:09:00,
2013-04-04 02:12:00,39.1,17.4,30.35,East,101,1.0,9.0,41,0.00,,,0.00,Wunderground v.1.15,2013-04-04 06:12:00,
2013-04-04 02:14:00,39.1,17.4,30.36,East,94,0.0,9.0,41,0.00,,,0.00,Wunderground v.1.15,2013-04-04 06:14:00,
2013-04-04 02:15:00,39.1,17.9,30.36,NNE,24,1.0,9.0,42,0.00,,,0.00,Wunderground v.1.15,2013-04-04 06:15:00,
2013-04-04 02:18:00,39.1,17.9,30.35,ESE,121,1.0,9.0,42,0.00,,,0.00,Wunderground v.1.15,2013-04-04 06:18:00,
2013-04-04 02:21:00,39.1,17.9,30.35,East,82,1.0,9.0,42,0.00,,,0.00,Wunderground v.1.15,2013-04-04 06:21:00,
2013-04-04 02:22:00,39.0,17.8,30.35,SSE,161,1.0,9.0,42,0.00,,,0.00,Wunderground v.1.15,2013-04-04 06:22:00,
2013-04-04 02:23:00,39.0,17.3,30.35,ESE,107,1.0,9.0,41,0.00,,,0.00,Wunderground v.1.15,2013-04-04 06:23:00,
2013-04-04 02:28:00,39.0,17.8,30.35,East,90,1.0,9.0,42,0.00,,,0.00,Wunderground v.1.15,2013-04-04 06:28:00,
2013-04-04 02:30:00,38.9,17.2,30.35,East,94,1.0,9.0,41,0.00,,,0.00,Wunderground v.1.15,2013-04-04 06:30:00,
2013-04-04 02:33:00,38.9,17.2,30.35,ENE,59,1.0,9.0,41,0.00,,,0.00,Wunderground v.1.15,2013-04-04 06:33:00,
2013-04-04 02:35:00,38.9,17.7,30.35,East,94,0.0,9.0,42,0.00,,,0.00,Wunderground v.1.15,2013-04-04 06:35:00,
2013-04-04 02:37:00,38.9,17.7,30.35,East,96,0.0,9.0,42,0.00,,,0.00,Wunderground v.1.15,2013-04-04 06:37:00,
2013-04-04 02:38:00,38.9,17.7,30.35,ESE,103,1.0,9.0,42,0.00,,,0.00,Wunderground v.1.15,2013-04-04 06:38:00,
2013-04-04 02:39:00,38.9,17.7,30.35,East,92,1.0,9.0,42,0.00,,,0.00,Wunderground v.1.15,2013-04-04 06:39:00,
2013-04-04 02:42:00,38.9,17.7,30.35,ESE,110,1.0,9.0,42,0.00,,,0.00,Wunderground v.1.15,2013-04-04 06:42:00,
2013-04-04 02:43:00,38.9,17.7,30.34,East,96,1.0,9.0,42,0.00,,,0.00,Wunderground v.1.15,2013-04-04 06:43:00,
2013-04-04 02:45:00,38.9,17.7,30.34,ESE,107,1.0,9.0,42,0.00,,,0.00,Wunderground v.1.15,2013-04-04 06:45:00,
2013-04-04 02:48:00,38.8,17.6,30.34,ESE,103,1.0,9.0,42,0.00,,,0.00,Wunderground v.1.15,2013-04-04 06:48:00,
2013-04-04 02:50:00,38.8,17.6,30.34,ESE,117,1.0,9.0,42,0.00,,,0.00,Wunderground v.1.15,2013-04-04 06:50:00,
2013-04-04 02:52:00,38.9,17.2,30.34,East,90,1.0,9.0,41,0.00,,,0.00,Wunderground v.1.15,2013-04-04 06:52:00,
2013-04-04 02:55:00,38.9,17.7,30.34,ESE,103,1.0,9.0,42,0.00,,,0.00,Wunderground v.1.15,2013-04-04 06:55:00,
2013-04-04 02:57:00,38.9,17.2,30.34,ESE,109,1.0,9.0,41,0.00,,,0.00,Wunderground v.1.15,2013-04-04 06:57:00,
2013-04-04 02:58:00,38.9,17.7,30.34,ESE,102,1.0,9.0,42,0.00,,,0.00,Wunderground v.1.15,2013-04-04 06:58:00,
2013-04-04 02:59:00,38.9,17.7,30.34,East,88,1.0,9.0,42,0.00,,,0.00,Wunderground v.1.15,2013-04-04 06:59:00,
2013-04-04 03:04:00,38.9,17.7,30.33,SE,130,1.0,9.0,42,0.00,,,0.00,Wunderground v.1.15,2013-04-04 07:04:00,
2013-04-04 03:06:00,38.8,17.6,30.33,East,101,1.0,9.0,42,0.00,,,0.00,Wunderground v.1.15,2013-04-04 07:06:00,
2013-04-04 03:09:00,38.8,17.6,30.33,ESE,103,1.0,9.0,42,0.00,,,0.00,Wunderground v.1.15,2013-04-04 07:09:00,
2013-04-04 03:13:00,38.8,17.6,30.33,East,90,1.0,9.0,42,0.00,,,0.00,Wunderground v.1.15,2013-04-04 07:13:00,
2013-04-04 03:15:00,38.7,17.5,30.33,ESE,107,1.0,9.0,42,0.00,,,0.00,Wunderground v.1.15,2013-04-04 07:15:00,
2013-04-04 03:17:00,38.7,18.1,30.33,ESE,121,1.0,9.0,43,0.00,,,0.00,Wunderground v.1.15,2013-04-04 07:17:00,
2013-04-04 03:18:00,38.7,18.1,30.33,ESE,111,1.0,9.0,43,0.00,,,0.00,Wunderground v.1.15,2013-04-04 07:18:00,
2013-04-04 03:20:00,38.7,18.1,30.32,East,101,1.0,9.0,43,0.00,,,0.00,Wunderground v.1.15,2013-04-04 07:20:00,
2013-04-04 03:25:00,38.6,18.0,30.32,ESE,115,1.0,9.0,43,0.00,,,0.00,Wunderground v.1.15,2013-04-04 07:25:00,
2013-04-04 03:26:00,38.5,18.4,30.32,East,94,1.0,9.0,44,0.00,,,0.00,Wunderground v.1.15,2013-04-04 07:26:00,
2013-04-04 03:28:00,38.5,17.9,30.32,ESE,106,0.0,9.0,43,0.00,,,0.00,Wunderground v.1.15,2013-04-04 07:28:00,
2013-04-04 03:29:00,38.5,18.4,30.32,ENE,76,0.0,9.0,44,0.00,,,0.00,Wunderground v.1.15,2013-04-04 07:29:00,
2013-04-04 03:32:00,38.4,17.8,30.32,East,90,0.0,9.0,43,0.00,,,0.00,Wunderground v.1.15,2013-04-04 07:32:00,
2013-04-04 03:33:00,38.3,18.3,30.32,ESE,113,0.0,9.0,44,0.00,,,0.00,Wunderground v.1.15,2013-04-04 07:33:00,
2013-04-04 03:37:00,38.3,18.8,30.32,ENE,68,0.0,9.0,45,0.00,,,0.00,Wunderground v.1.15,2013-04-04 07:37:00,
2013-04-04 03:38:00,38.2,18.7,30.32,ESE,117,0.0,9.0,45,0.00,,,0.00,Wunderground v.1.15,2013-04-04 07:38:00,
2013-04-04 03:42:00,38.2,18.2,30.32,ESE,103,0.0,9.0,44,0.00,,,0.00,Wunderground v.1.15,2013-04-04 07:42:00,
2013-04-04 03:43:00,38.2,18.2,30.32,ESE,120,0.0,9.0,44,0.00,,,0.00,Wunderground v.1.15,2013-04-04 07:43:00,
2013-04-04 03:45:00,38.2,18.2,30.32,ESE,105,0.0,9.0,44,0.00,,,0.00,Wunderground v.1.15,2013-04-04 07:45:00,
2013-04-04 03:49:00,38.2,18.7,30.31,East,98,1.0,9.0,45,0.00,,,0.00,Wunderground v.1.15,2013-04-04 07:49:00,
2013-04-04 03:50:00,38.2,18.2,30.31,ESE,117,1.0,1.0,44,0.00,,,0.00,Wunderground v.1.15,2013-04-04 07:50:00,
2013-04-04 03:55:00,38.3,18.3,30.31,East,93,1.0,9.0,44,0.00,,,0.00,Wunderground v.1.15,2013-04-04 07:55:00,
2013-04-04 03:56:00,38.3,18.3,30.31,East,89,1.0,9.0,44,0.00,,,0.00,Wunderground v.1.15,2013-04-04 07:56:00,
2013-04-04 03:59:00,38.3,18.3,30.32,ESE,121,1.0,9.0,44,0.00,,,0.00,Wunderground v.1.15,2013-04-04 07:59:00,
2013-04-04 04:01:00,38.3,18.3,30.32,ESE,111,1.0,9.0,44,0.00,,,0.00,Wunderground v.1.15,2013-04-04 08:01:00,
2013-04-04 04:03:00,38.2,18.7,30.32,ESE,102,1.0,9.0,45,0.00,,,0.00,Wunderground v.1.15,2013-04-04 08:03:00,
2013-04-04 04:07:00,38.2,18.7,30.32,ESE,115,0.0,9.0,45,0.00,,,0.00,Wunderground v.1.15,2013-04-04 08:07:00,
2013-04-04 04:09:00,38.1,18.6,30.32,ESE,106,0.0,9.0,45,0.00,,,0.00,Wunderground v.1.15,2013-04-04 08:09:00,
2013-04-04 04:11:00,38.1,19.1,30.32,ESE,113,0.0,9.0,46,0.00,,,0.00,Wunderground v.1.15,2013-04-04 08:11:00,
2013-04-04 04:13:00,38.0,18.5,30.32,ESE,113,0.0,9.0,45,0.00,,,0.00,Wunderground v.1.15,2013-04-04 08:13:00,
2013-04-04 04:17:00,38.0,18.5,30.32,ESE,104,0.0,9.0,45,0.00,,,0.00,Wunderground v.1.15,2013-04-04 08:17:00,
2013-04-04 04:18:00,38.0,18.5,30.32,ESE,111,0.0,9.0,45,0.00,,,0.00,Wunderground v.1.15,2013-04-04 08:18:00,
2013-04-04 04:20:00,37.9,18.9,30.32,ESE,109,0.0,9.0,46,0.00,,,0.00,Wunderground v.1.15,2013-04-04 08:20:00,
2013-04-04 04:23:00,37.8,18.8,30.32,ESE,109,0.0,9.0,46,0.00,,,0.00,Wunderground v.1.15,2013-04-04 08:23:00,
2013-04-04 04:25:00,37.8,19.3,30.32,ESE,108,0.0,9.0,47,0.00,,,0.00,Wunderground v.1.15,2013-04-04 08:25:00,
2013-04-04 04:26:00,37.7,19.3,30.32,ESE,112,0.0,9.0,47,0.00,,,0.00,Wunderground v.1.15,2013-04-04 08:26:00,
2013-04-04 04:28:00,37.6,18.7,30.32,ESE,112,0.0,9.0,46,0.00,,,0.00,Wunderground v.1.15,2013-04-04 08:28:00,
2013-04-04 04:29:00,37.6,19.2,30.32,ESE,109,0.0,9.0,47,0.00,,,0.00,Wunderground v.1.15,2013-04-04 08:29:00,
2013-04-04 04:33:00,37.4,19.0,30.31,ESE,109,0.0,9.0,47,0.00,,,0.00,Wunderground v.1.15,2013-04-04 08:33:00,
2013-04-04 04:34:00,37.4,19.0,30.31,ESE,104,0.0,9.0,47,0.00,,,0.00,Wunderground v.1.15,2013-04-04 08:34:00,
2013-04-04 04:35:00,37.4,19.0,30.31,ESE,104,0.0,9.0,47,0.00,,,0.00,Wunderground v.1.15,2013-04-04 08:35:00,
2013-04-04 04:37:00,37.4,18.5,30.31,ESE,106,0.0,9.0,46,0.00,,,0.00,Wunderground v.1.15,2013-04-04 08:37:00,
2013-04-04 04:40:00,37.3,18.9,30.31,ESE,108,0.0,9.0,47,0.00,,,0.00,Wunderground v.1.15,2013-04-04 08:40:00,
2013-04-04 04:41:00,37.2,18.8,30.31,East,98,0.0,9.0,47,0.00,,,0.00,Wunderground v.1.15,2013-04-04 08:41:00,
2013-04-04 04:43:00,37.1,18.7,30.31,East,92,0.0,9.0,47,0.00,,,0.00,Wunderground v.1.15,2013-04-04 08:43:00,
2013-04-04 04:47:00,37.1,18.7,30.30,East,81,0.0,9.0,47,0.00,,,0.00,Wunderground v.1.15,2013-04-04 08:47:00,
2013-04-04 04:49:00,37.1,18.7,30.30,East,88,0.0,9.0,47,0.00,,,0.00,Wunderground v.1.15,2013-04-04 08:49:00,
2013-04-04 04:51:00,37.1,18.7,30.30,ESE,105,0.0,9.0,47,0.00,,,0.00,Wunderground v.1.15,2013-04-04 08:51:00,
2013-04-04 04:52:00,37.1,18.7,30.30,ESE,114,0.0,9.0,47,0.00,,,0.00,Wunderground v.1.15,2013-04-04 08:52:00,
2013-04-04 04:53:00,37.1,18.2,30.30,ESE,111,1.0,9.0,46,0.00,,,0.00,Wunderground v.1.15,2013-04-04 08:53:00,
2013-04-04 04:56:00,37.2,18.3,30.30,ESE,104,1.0,9.0,46,0.00,,,0.00,Wunderground v.1.15,2013-04-04 08:56:00,
2013-04-04 04:59:00,37.3,18.4,30.30,NE,39,1.0,9.0,46,0.00,,,0.00,Wunderground v.1.15,2013-04-04 08:59:00,
2013-04-04 05:00:00,37.3,18.4,30.30,ESE,121,1.0,9.0,46,0.00,,,0.00,Wunderground v.1.15,2013-04-04 09:00:00,
2013-04-04 05:01:00,37.3,18.4,30.30,ESE,107,1.0,9.0,46,0.00,,,0.00,Wunderground v.1.15,2013-04-04 09:01:00,
2013-04-04 05:04:00,37.4,18.5,30.30,ESE,102,1.0,9.0,46,0.00,,,0.00,Wunderground v.1.15,2013-04-04 09:04:00,
2013-04-04 05:05:00,37.4,18.5,30.30,East,90,1.0,9.0,46,0.00,,,0.00,Wunderground v.1.15,2013-04-04 09:05:00,
2013-04-04 05:08:00,37.4,18.5,30.30,East,86,1.0,9.0,46,0.00,,,0.00,Wunderground v.1.15,2013-04-04 09:08:00,
2013-04-04 05:09:00,37.4,18.5,30.30,East,84,1.0,9.0,46,0.00,,,0.00,Wunderground v.1.15,2013-04-04 09:09:00,
2013-04-04 05:10:00,37.4,18.5,30.30,ESE,103,1.0,1.0,46,0.00,,,0.00,Wunderground v.1.15,2013-04-04 09:10:00,
2013-04-04 05:11:00,37.4,19.0,30.30,ENE,71,0.0,9.0,47,0.00,,,0.00,Wunderground v.1.15,2013-04-04 09:11:00,
2013-04-04 05:15:00,37.4,18.5,30.30,East,96,0.0,9.0,46,0.00,,,0.00,Wunderground v.1.15,2013-04-04 09:15:00,
2013-04-04 05:17:00,37.4,18.5,30.29,ESE,105,0.0,9.0,46,0.00,,,0.00,Wunderground v.1.15,2013-04-04 09:17:00,
2013-04-04 05:19:00,37.4,18.5,30.29,ESE,111,1.0,9.0,46,0.00,,,0.00,Wunderground v.1.15,2013-04-04 09:19:00,
2013-04-04 05:21:00,37.4,18.5,30.29,ENE,66,1.0,9.0,46,0.00,,,0.00,Wunderground v.1.15,2013-04-04 09:21:00,
2013-04-04 05:22:00,37.4,18.5,30.30,East,82,1.0,9.0,46,0.00,,,0.00,Wunderground v.1.15,2013-04-04 09:22:00,
2013-04-04 05:24:00,37.5,18.6,30.30,ESE,102,1.0,9.0,46,0.00,,,0.00,Wunderground v.1.15,2013-04-04 09:24:00,
2013-04-04 05:25:00,37.4,19.0,30.29,East,93,1.0,9.0,47,0.00,,,0.00,Wunderground v.1.15,2013-04-04 09:25:00,
2013-04-04 05:28:00,37.4,19.0,30.29,East,86,0.0,9.0,47,0.00,,,0.00,Wunderground v.1.15,2013-04-04 09:28:00,
2013-04-04 05:30:00,37.4,18.5,30.29,East,79,0.0,9.0,46,0.00,,,0.00,Wunderground v.1.15,2013-04-04 09:30:00,
2013-04-04 05:31:00,37.4,19.0,30.29,ENE,61,0.0,9.0,47,0.00,,,0.00,Wunderground v.1.15,2013-04-04 09:31:00,
2013-04-04 05:34:00,37.3,18.4,30.28,East,92,0.0,9.0,46,0.00,,,0.00,Wunderground v.1.15,2013-04-04 09:34:00,
2013-04-04 05:39:00,37.3,18.9,30.28,ESE,116,0.0,9.0,47,0.00,,,0.00,Wunderground v.1.15,2013-04-04 09:39:00,
2013-04-04 05:40:00,37.3,18.9,30.28,East,94,0.0,9.0,47,0.00,,,0.00,Wunderground v.1.15,2013-04-04 09:40:00,
2013-04-04 05:41:00,37.3,18.4,30.28,East,101,0.0,9.0,46,0.00,,,0.00,Wunderground v.1.15,2013-04-04 09:41:00,
2013-04-04 05:46:00,37.3,18.9,30.28,ESE,105,1.0,9.0,47,0.00,,,0.00,Wunderground v.1.15,2013-04-04 09:46:00,
2013-04-04 05:48:00,37.3,18.9,30.28,East,91,1.0,9.0,47,0.00,,,0.00,Wunderground v.1.15,2013-04-04 09:48:00,
2013-04-04 05:50:00,37.3,18.4,30.28,ESE,105,1.0,1.0,46,0.00,,,0.00,Wunderground v.1.15,2013-04-04 09:50:00,
2013-04-04 05:51:00,37.3,18.9,30.28,East,99,1.0,2.0,47,0.00,,,0.00,Wunderground v.1.15,2013-04-04 09:51:00,
2013-04-04 05:52:00,37.3,18.4,30.28,ESE,112,1.0,3.0,46,0.00,,,0.00,Wunderground v.1.15,2013-04-04 09:52:00,
2013-04-04 05:57:00,37.3,18.4,30.28,ESE,108,1.0,9.0,46,0.00,,,0.00,Wunderground v.1.15,2013-04-04 09:57:00,
2013-04-04 05:58:00,37.3,18.4,30.28,East,94,1.0,9.0,46,0.00,,,0.00,Wunderground v.1.15,2013-04-04 09:58:00,
2013-04-04 05:59:00,37.3,18.4,30.28,East,100,1.0,9.0,46,0.00,,,0.00,Wunderground v.1.15,2013-04-04 09:59:00,
2013-04-04 06:02:00,37.3,19.4,30.28,ESE,108,1.0,9.0,48,0.00,,,0.00,Wunderground v.1.15,2013-04-04 10:02:00,
2013-04-04 06:04:00,37.2,18.3,30.28,ESE,115,1.0,9.0,46,0.00,,,0.00,Wunderground v.1.15,2013-04-04 10:04:00,
2013-04-04 06:05:00,37.2,18.8,30.28,East,101,0.0,9.0,47,0.00,,,0.00,Wunderground v.1.15,2013-04-04 10:05:00,
2013-04-04 06:07:00,37.1,18.7,30.28,ESE,102,0.0,9.0,47,0.00,,,0.00,Wunderground v.1.15,2013-04-04 10:07:00,
2013-04-04 06:08:00,37.1,18.2,30.28,East,92,0.0,9.0,46,0.00,,,0.00,Wunderground v.1.15,2013-04-04 10:08:00,
2013-04-04 06:10:00,37.1,18.2,30.28,ESE,114,0.0,9.0,46,0.00,,,0.00,Wunderground v.1.15,2013-04-04 10:10:00,
2013-04-04 06:13:00,37.1,18.7,30.28,ESE,107,1.0,9.0,47,0.00,,,0.00,Wunderground v.1.15,2013-04-04 10:13:00,
2013-04-04 06:15:00,37.1,18.7,30.28,East,86,1.0,9.0,47,0.00,,,0.00,Wunderground v.1.15,2013-04-04 10:15:00,
2013-04-04 06:18:00,37.0,18.6,30.28,ESE,116,1.0,9.0,47,0.00,,,0.00,Wunderground v.1.15,2013-04-04 10:18:00,
2013-04-04 06:19:00,37.0,18.6,30.28,ESE,105,0.0,9.0,47,0.00,,,0.00,Wunderground v.1.15,2013-04-04 10:19:00,
2013-04-04 06:21:00,37.0,18.6,30.28,ESE,113,1.0,9.0,47,0.00,,,0.00,Wunderground v.1.15,2013-04-04 10:21:00,
2013-04-04 06:24:00,37.0,19.1,30.28,ESE,108,1.0,9.0,48,0.00,,,0.00,Wunderground v.1.15,2013-04-04 10:24:00,
2013-04-04 06:25:00,36.9,19.0,30.28,ESE,111,1.0,9.0,48,0.00,,,0.00,Wunderground v.1.15,2013-04-04 10:25:00,
2013-04-04 06:27:00,36.9,19.0,30.28,East,92,1.0,9.0,48,0.00,,,0.00,Wunderground v.1.15,2013-04-04 10:27:00,
2013-04-04 06:29:00,36.9,19.0,30.27,ESE,107,0.0,9.0,48,0.00,,,0.00,Wunderground v.1.15,2013-04-04 10:29:00,
2013-04-04 06:31:00,36.8,18.9,30.28,ENE,74,0.0,9.0,48,0.00,,,0.00,Wunderground v.1.15,2013-04-04 10:31:00,
2013-04-04 06:32:00,36.8,18.9,30.28,NE,55,0.0,9.0,48,0.00,,,0.00,Wunderground v.1.15,2013-04-04 10:32:00,
2013-04-04 06:33:00,36.8,18.4,30.28,ESE,106,0.0,9.0,47,0.00,,,0.00,Wunderground v.1.15,2013-04-04 10:33:00,
2013-04-04 06:36:00,36.8,19.4,30.28,East,97,1.0,9.0,49,0.00,,,0.00,Wunderground v.1.15,2013-04-04 10:36:00,
2013-04-04 06:37:00,36.7,18.8,30.28,East,94,1.0,9.0,48,0.00,,,0.00,Wunderground v.1.15,2013-04-04 10:37:00,
2013-04-04 06:38:00,36.7,18.8,30.28,East,84,1.0,9.0,48,0.00,,,0.00,Wunderground v.1.15,2013-04-04 10:38:00,
2013-04-04 06:41:00,36.7,18.8,30.28,ESE,107,1.0,9.0,48,0.00,,,0.00,Wunderground v.1.15,2013-04-04 10:41:00,
2013-04-04 06:44:00,36.6,19.2,30.28,ESE,110,1.0,9.0,49,0.00,,,0.00,Wunderground v.1.15,2013-04-04 10:44:00,
2013-04-04 06:45:00,36.6,19.2,30.28,ESE,107,1.0,9.0,49,0.00,,,0.00,Wunderground v.1.15,2013-04-04 10:45:00,
2013-04-04 06:46:00,36.6,19.2,30.28,ESE,107,1.0,9.0,49,0.00,,,0.00,Wunderground v.1.15,2013-04-04 10:46:00,
2013-04-04 06:50:00,36.5,19.1,30.28,ESE,108,0.0,9.0,49,0.00,,,0.00,Wunderground v.1.15,2013-04-04 10:50:00,
2013-04-04 06:51:00,36.5,19.1,30.28,ESE,119,0.0,9.0,49,0.00,,,0.00,Wunderground v.1.15,2013-04-04 10:51:00,
2013-04-04 06:52:00,36.5,19.1,30.28,ESE,109,1.0,9.0,49,0.00,,,0.00,Wunderground v.1.15,2013-04-04 10:52:00,
2013-04-04 06:53:00,36.5,19.1,30.28,ESE,106,1.0,9.0,49,0.00,,,0.00,Wunderground v.1.15,2013-04-04 10:53:00,
2013-04-04 06:57:00,36.5,19.1,30.28,ESE,107,1.0,9.0,49,0.00,,,0.00,Wunderground v.1.15,2013-04-04 10:57:00,
2013-04-04 06:59:00,36.5,19.1,30.28,ESE,109,1.0,9.0,49,0.00,,,0.00,Wunderground v.1.15,2013-04-04 10:59:00,
2013-04-04 07:00:00,36.4,19.0,30.28,ESE,106,1.0,1.0,49,0.00,,,0.00,Wunderground v.1.15,2013-04-04 11:00:00,
2013-04-04 07:01:00,36.4,19.0,30.28,ESE,103,1.0,9.0,49,0.00,,,0.00,Wunderground v.1.15,2013-04-04 11:01:00,
2013-04-04 07:07:00,36.4,19.5,30.28,ESE,114,1.0,9.0,50,0.00,,,0.00,Wunderground v.1.15,2013-04-04 11:07:00,
2013-04-04 07:09:00,36.3,19.4,30.28,ESE,102,1.0,9.0,50,0.00,,,0.00,Wunderground v.1.15,2013-04-04 11:09:00,
2013-04-04 07:12:00,36.3,19.4,30.28,ESE,114,0.0,9.0,50,0.00,,,0.00,Wunderground v.1.15,2013-04-04 11:12:00,
2013-04-04 07:14:00,36.2,19.3,30.28,ESE,105,0.0,9.0,50,0.00,,,0.00,Wunderground v.1.15,2013-04-04 11:14:00,
2013-04-04 07:15:00,36.2,19.3,30.29,ESE,109,0.0,9.0,50,0.00,,,0.00,Wunderground v.1.15,2013-04-04 11:15:00,
2013-04-04 07:17:00,36.2,19.3,30.29,ESE,114,0.0,9.0,50,0.00,,,0.00,Wunderground v.1.15,2013-04-04 11:17:00,
2013-04-04 07:18:00,36.2,18.9,30.29,ENE,71,0.0,9.0,49,0.00,,,0.00,Wunderground v.1.15,2013-04-04 11:18:00,
2013-04-04 07:22:00,36.1,19.2,30.28,ENE,74,0.0,9.0,50,0.00,,,0.00,Wunderground v.1.15,2013-04-04 11:22:00,
2013-04-04 07:23:00,36.1,19.2,30.28,ENE,78,0.0,9.0,50,0.00,,,0.00,Wunderground v.1.15,2013-04-04 11:23:00,
2013-04-04 07:26:00,36.0,19.1,30.28,East,101,0.0,9.0,50,0.00,,,0.00,Wunderground v.1.15,2013-04-04 11:26:00,
2013-04-04 07:29:00,35.9,19.0,30.28,ESE,105,0.0,9.0,50,0.00,,,0.00,Wunderground v.1.15,2013-04-04 11:29:00,
2013-04-04 07:31:00,35.9,19.0,30.28,ESE,112,0.0,9.0,50,0.00,,,0.00,Wunderground v.1.15,2013-04-04 11:31:00,
2013-04-04 07:32:00,36.0,19.6,30.28,ENE,65,0.0,9.0,51,0.00,,,0.00,Wunderground v.1.15,2013-04-04 11:32:00,
2013-04-04 07:34:00,36.0,19.1,30.28,East,86,1.0,9.0,50,0.00,,,0.00,Wunderground v.1.15,2013-04-04 11:34:00,
2013-04-04 07:35:00,36.0,19.1,30.28,ESE,109,1.0,9.0,50,0.00,,,0.00,Wunderground v.1.15,2013-04-04 11:35:00,
2013-04-04 07:37:00,36.0,19.1,30.28,East,93,1.0,9.0,50,0.00,,,0.00,Wunderground v.1.15,2013-04-04 11:37:00,
2013-04-04 07:39:00,36.0,19.1,30.28,ESE,108,1.0,9.0,50,0.00,,,0.00,Wunderground v.1.15,2013-04-04 11:39:00,
2013-04-04 07:41:00,35.9,19.0,30.28,East,101,0.0,9.0,50,0.00,,,0.00,Wunderground v.1.15,2013-04-04 11:41:00,
2013-04-04 07:43:00,35.9,19.5,30.28,ESE,116,0.0,9.0,51,0.00,,,0.00,Wunderground v.1.15,2013-04-04 11:43:00,
2013-04-04 07:44:00,35.9,19.5,30.28,East,89,0.0,9.0,51,0.00,,,0.00,Wunderground v.1.15,2013-04-04 11:44:00,
2013-04-04 07:45:00,35.9,19.0,30.28,East,85,0.0,9.0,50,0.00,,,0.00,Wunderground v.1.15,2013-04-04 11:45:00,
2013-04-04 07:48:00,35.9,19.5,30.28,East,83,0.0,9.0,51,0.00,,,0.00,Wunderground v.1.15,2013-04-04 11:48:00,
2013-04-04 07:49:00,35.9,19.5,30.28,East,80,0.0,9.0,51,0.00,,,0.00,Wunderground v.1.15,2013-04-04 11:49:00,
2013-04-04 07:50:00,35.9,19.5,30.28,ENE,78,0.0,9.0,51,0.00,,,0.00,Wunderground v.1.15,2013-04-04 11:50:00,
2013-04-04 07:51:00,35.9,19.5,30.28,East,100,0.0,9.0,51,0.00,,,0.00,Wunderground v.1.15,2013-04-04 11:51:00,
2013-04-04 07:54:00,35.9,20.0,30.28,ESE,103,0.0,9.0,52,0.00,,,0.00,Wunderground v.1.15,2013-04-04 11:54:00,
2013-04-04 07:56:00,35.9,19.5,30.28,NE,41,0.0,9.0,51,0.00,,,0.00,Wunderground v.1.15,2013-04-04 11:56:00,
2013-04-04 07:57:00,36.0,19.6,30.28,ESE,117,0.0,9.0,51,0.00,,,0.00,Wunderground v.1.15,2013-04-04 11:57:00,
2013-04-04 07:58:00,36.0,19.6,30.28,NE,54,0.0,9.0,51,0.00,,,0.00,Wunderground v.1.15,2013-04-04 11:58:00,
2013-04-04 08:01:00,36.0,19.6,30.28,ESE,108,0.0,9.0,51,0.00,,,0.00,Wunderground v.1.15,2013-04-04 12:01:00,
2013-04-04 08:02:00,36.0,19.6,30.28,ESE,105,0.0,9.0,51,0.00,,,0.00,Wunderground v.1.15,2013-04-04 12:02:00,
2013-04-04 08:03:00,36.0,19.6,30.28,ESE,107,0.0,9.0,51,0.00,,,0.00,Wunderground v.1.15,2013-04-04 12:03:00,
2013-04-04 08:04:00,36.0,19.6,30.28,East,96,0.0,9.0,51,0.00,,,0.00,Wunderground v.1.15,2013-04-04 12:04:00,
2013-04-04 08:09:00,36.1,20.2,30.28,ESE,113,0.0,9.0,52,0.00,,,0.00,Wunderground v.1.15,2013-04-04 12:09:00,
2013-04-04 08:11:00,36.1,19.7,30.28,East,98,0.0,9.0,51,0.00,,,0.00,Wunderground v.1.15,2013-04-04 12:11:00,
2013-04-04 08:12:00,36.2,19.8,30.28,ESE,110,1.0,9.0,51,0.00,,,0.00,Wunderground v.1.15,2013-04-04 12:12:00,
2013-04-04 08:15:00,36.2,19.8,30.27,ESE,109,0.0,9.0,51,0.00,,,0.00,Wunderground v.1.15,2013-04-04 12:15:00,
2013-04-04 08:16:00,36.3,20.3,30.28,ESE,103,0.0,9.0,52,0.00,,,0.00,Wunderground v.1.15,2013-04-04 12:16:00,
2013-04-04 08:17:00,36.3,20.3,30.28,SE,130,0.0,9.0,52,0.00,,,0.00,Wunderground v.1.15,2013-04-04 12:17:00,
2013-04-04 08:21:00,36.4,19.5,30.27,East,93,1.0,9.0,50,0.00,,,0.00,Wunderground v.1.15,2013-04-04 12:21:00,
2013-04-04 08:22:00,36.5,20.1,30.27,East,90,1.0,9.0,51,0.00,,,0.00,Wunderground v.1.15,2013-04-04 12:22:00,
2013-04-04 08:24:00,36.5,20.1,30.27,ESE,113,1.0,9.0,51,0.00,,,0.00,Wunderground v.1.15,2013-04-04 12:24:00,
2013-04-04 08:27:00,36.6,20.2,30.28,East,92,1.0,9.0,51,0.00,,,0.00,Wunderground v.1.15,2013-04-04 12:27:00,
2013-04-04 08:30:00,36.8,20.3,30.27,East,101,1.0,1.0,51,0.00,,,0.00,Wunderground v.1.15,2013-04-04 12:30:00,
2013-04-04 08:33:00,37.0,20.5,30.27,East,84,1.0,9.0,51,0.00,,,0.00,Wunderground v.1.15,2013-04-04 12:33:00,
2013-04-04 08:35:00,37.0,20.5,30.27,ESE,107,1.0,9.0,51,0.00,,,0.00,Wunderground v.1.15,2013-04-04 12:35:00,
2013-04-04 08:36:00,37.0,20.1,30.28,East,100,1.0,9.0,50,0.00,,,0.00,Wunderground v.1.15,2013-04-04 12:36:00,
2013-04-04 08:40:00,37.1,20.2,30.28,East,101,1.0,1.0,50,0.00,,,0.00,Wunderground v.1.15,2013-04-04 12:40:00,
2013-04-04 08:41:00,37.1,20.2,30.28,ESE,109,1.0,9.0,50,0.00,,,0.00,Wunderground v.1.15,2013-04-04 12:41:00,
2013-04-04 08:42:00,37.1,20.6,30.28,ESE,103,1.0,9.0,51,0.00,,,0.00,Wunderground v.1.15,2013-04-04 12:42:00,
2013-04-04 08:46:00,37.2,20.2,30.28,East,101,1.0,9.0,50,0.00,,,0.00,Wunderground v.1.15,2013-04-04 12:46:00,
2013-04-04 08:47:00,37.3,20.3,30.27,ESE,119,1.0,9.0,50,0.00,,,0.00,Wunderground v.1.15,2013-04-04 12:47:00,
2013-04-04 08:49:00,37.3,20.3,30.27,ESE,104,1.0,9.0,50,0.00,,,0.00,Wunderground v.1.15,2013-04-04 12:49:00,
2013-04-04 08:51:00,37.4,20.4,30.27,East,96,0.0,9.0,50,0.00,,,0.00,Wunderground v.1.15,2013-04-04 12:51:00,
2013-04-04 08:52:00,37.4,20.9,30.27,ESE,111,0.0,9.0,51,0.00,,,0.00,Wunderground v.1.15,2013-04-04 12:52:00,
2013-04-04 08:54:00,37.5,20.5,30.27,ENE,75,1.0,9.0,50,0.00,,,0.00,Wunderground v.1.15,2013-04-04 12:54:00,
2013-04-04 08:58:00,37.7,21.2,30.27,East,84,1.0,9.0,51,0.00,,,0.00,Wunderground v.1.15,2013-04-04 12:58:00,
2013-04-04 08:59:00,37.7,20.7,30.27,ESE,105,1.0,9.0,50,0.00,,,0.00,Wunderground v.1.15,2013-04-04 12:59:00,
2013-04-04 09:04:00,37.9,20.4,30.27,ESE,108,1.0,9.0,49,0.00,,,0.00,Wunderground v.1.15,2013-04-04 13:04:00,
2013-04-04 09:05:00,38.0,21.5,30.27,ESE,105,1.0,9.0,51,0.00,,,0.00,Wunderground v.1.15,2013-04-04 13:05:00,
2013-04-04 09:08:00,38.1,21.5,30.27,ESE,102,1.0,9.0,51,0.00,,,0.00,Wunderground v.1.15,2013-04-04 13:08:00,
2013-04-04 09:11:00,38.3,21.3,30.27,East,90,0.0,9.0,50,0.00,,,0.00,Wunderground v.1.15,2013-04-04 13:11:00,
2013-04-04 09:12:00,38.4,21.8,30.26,ESE,102,0.0,9.0,51,0.00,,,0.00,Wunderground v.1.15,2013-04-04 13:12:00,
2013-04-04 09:14:00,38.5,21.0,30.26,East,92,0.0,9.0,49,0.00,,,0.00,Wunderground v.1.15,2013-04-04 13:14:00,
2013-04-04 09:17:00,38.6,20.6,30.26,ESE,114,0.0,9.0,48,0.00,,,0.00,Wunderground v.1.15,2013-04-04 13:17:00,
2013-04-04 09:19:00,38.7,20.7,30.26,East,96,0.0,9.0,48,0.00,,,0.00,Wunderground v.1.15,2013-04-04 13:19:00,
2013-04-04 09:20:00,38.7,20.7,30.26,SSE,150,0.0,9.0,48,0.00,,,0.00,Wunderground v.1.15,2013-04-04 13:20:00,
2013-04-04 09:21:00,38.7,21.2,30.26,East,98,0.0,9.0,49,0.00,,,0.00,Wunderground v.1.15,2013-04-04 13:21:00,
2013-04-04 09:25:00,38.8,20.8,30.26,NE,49,1.0,9.0,48,0.00,,,0.00,Wunderground v.1.15,2013-04-04 13:25:00,
2013-04-04 09:27:00,38.9,20.9,30.26,East,86,1.0,9.0,48,0.00,,,0.00,Wunderground v.1.15,2013-04-04 13:27:00,
2013-04-04 09:29:00,38.9,20.9,30.25,East,80,0.0,9.0,48,0.00,,,0.00,Wunderground v.1.15,2013-04-04 13:29:00,
2013-04-04 09:32:00,39.0,20.9,30.25,East,96,0.0,9.0,48,0.00,,,0.00,Wunderground v.1.15,2013-04-04 13:32:00,
2013-04-04 09:33:00,39.1,21.0,30.25,ESE,109,0.0,9.0,48,0.00,,,0.00,Wunderground v.1.15,2013-04-04 13:33:00,
2013-04-04 09:35:00,39.2,21.1,30.25,ESE,104,0.0,9.0,48,0.00,,,0.00,Wunderground v.1.15,2013-04-04 13:35:00,
2013-04-04 09:36:00,39.3,21.2,30.25,ESE,102,1.0,9.0,48,0.00,,,0.00,Wunderground v.1.15,2013-04-04 13:36:00,
2013-04-04 09:39:00,39.5,21.4,30.25,East,82,1.0,9.0,48,0.00,,,0.00,Wunderground v.1.15,2013-04-04 13:39:00,
2013-04-04 09:40:00,39.5,20.9,30.25,ESE,102,1.0,9.0,47,0.00,,,0.00,Wunderground v.1.15,2013-04-04 13:40:00,
2013-04-04 09:42:00,39.7,21.6,30.25,East,101,1.0,9.0,48,0.00,,,0.00,Wunderground v.1.15,2013-04-04 13:42:00,
2013-04-04 09:44:00,39.8,21.7,30.24,East,92,1.0,9.0,48,0.00,,,0.00,Wunderground v.1.15,2013-04-04 13:44:00,
2013-04-04 09:45:00,39.8,21.7,30.24,ENE,65,0.0,9.0,48,0.00,,,0.00,Wunderground v.1.15,2013-04-04 13:45:00,
2013-04-04 09:47:00,40.0,21.4,30.24,ESE,105,0.0,9.0,47,0.00,,,0.00,Wunderground v.1.15,2013-04-04 13:47:00,
2013-04-04 09:48:00,40.1,21.5,30.24,ESE,111,0.0,9.0,47,0.00,,,0.00,Wunderground v.1.15,2013-04-04 13:48:00,
2013-04-04 09:50:00,40.3,21.6,30.24,East,101,0.0,9.0,47,0.00,,,0.00,Wunderground v.1.15,2013-04-04 13:50:00,
2013-04-04 09:53:00,40.6,22.4,30.24,ESE,102,0.0,9.0,48,0.00,,,0.00,Wunderground v.1.15,2013-04-04 13:53:00,
2013-04-04 09:57:00,41.2,22.0,30.24,ESE,111,1.0,9.0,46,0.00,,,0.00,Wunderground v.1.15,2013-04-04 13:57:00,
2013-04-04 09:58:00,41.3,22.1,30.24,East,101,1.0,9.0,46,0.00,,,0.00,Wunderground v.1.15,2013-04-04 13:58:00,
2013-04-04 09:59:00,41.4,21.6,30.24,East,92,1.0,9.0,45,0.00,,,0.00,Wunderground v.1.15,2013-04-04 13:59:00,
2013-04-04 10:04:00,41.6,21.8,30.24,NNE,24,1.0,9.0,45,0.00,,,0.00,Wunderground v.1.15,2013-04-04 14:04:00,
2013-04-04 10:05:00,41.7,21.9,30.24,ESE,121,1.0,9.0,45,0.00,,,0.00,Wunderground v.1.15,2013-04-04 14:05:00,
2013-04-04 10:06:00,41.7,21.4,30.24,ESE,112,1.0,9.0,44,0.00,,,0.00,Wunderground v.1.15,2013-04-04 14:06:00,
2013-04-04 10:09:00,41.6,21.8,30.24,East,101,1.0,9.0,45,0.00,,,0.00,Wunderground v.1.15,2013-04-04 14:09:00,
2013-04-04 10:12:00,41.8,22.0,30.24,ESE,109,1.0,9.0,45,0.00,,,0.00,Wunderground v.1.15,2013-04-04 14:12:00,
2013-04-04 10:14:00,41.9,22.1,30.23,SE,138,1.0,9.0,45,0.00,,,0.00,Wunderground v.1.15,2013-04-04 14:14:00,
2013-04-04 10:15:00,42.0,23.2,30.23,ESE,116,1.0,9.0,47,0.00,,,0.00,Wunderground v.1.15,2013-04-04 14:15:00,
2013-04-04 10:20:00,42.5,22.6,30.23,SE,131,0.0,9.0,45,0.00,,,0.00,Wunderground v.1.15,2013-04-04 14:20:00,
2013-04-04 10:21:00,42.6,22.7,30.23,East,90,0.0,9.0,45,0.00,,,0.00,Wunderground v.1.15,2013-04-04 14:21:00,
2013-04-04 10:22:00,42.7,22.8,30.23,SE,125,0.0,9.0,45,0.00,,,0.00,Wunderground v.1.15,2013-04-04 14:22:00,
2013-04-04 10:23:00,42.8,22.4,30.23,ENE,70,0.0,9.0,44,0.00,,,0.00,Wunderground v.1.15,2013-04-04 14:23:00,
2013-04-04 10:25:00,42.8,22.4,30.23,ESE,123,0.0,9.0,44,0.00,,,0.00,Wunderground v.1.15,2013-04-04 14:25:00,
2013-04-04 10:26:00,42.8,22.4,30.22,East,88,1.0,9.0,44,0.00,,,0.00,Wunderground v.1.15,2013-04-04 14:26:00,
2013-04-04 10:27:00,42.8,22.4,30.22,ESE,119,1.0,9.0,44,0.00,,,0.00,Wunderground v.1.15,2013-04-04 14:27:00,
2013-04-04 10:30:00,42.8,22.4,30.22,ESE,110,1.0,1.0,44,0.00,,,0.00,Wunderground v.1.15,2013-04-04 14:30:00,
2013-04-04 10:31:00,42.8,22.9,30.22,ESE,111,1.0,9.0,45,0.00,,,0.00,Wunderground v.1.15,2013-04-04 14:31:00,
2013-04-04 10:35:00,43.2,22.2,30.22,SE,126,1.0,9.0,43,0.00,,,0.00,Wunderground v.1.15,2013-04-04 14:35:00,
2013-04-04 10:36:00,43.2,22.2,30.22,ESE,115,1.0,9.0,43,0.00,,,0.00,Wunderground v.1.15,2013-04-04 14:36:00,
2013-04-04 10:38:00,43.2,22.7,30.22,East,91,1.0,9.0,44,0.00,,,0.00,Wunderground v.1.15,2013-04-04 14:38:00,
2013-04-04 10:39:00,43.2,23.3,30.22,East,94,0.0,9.0,45,0.00,,,0.00,Wunderground v.1.15,2013-04-04 14:39:00,
2013-04-04 10:41:00,43.4,24.5,30.22,East,85,0.0,9.0,47,0.00,,,0.00,Wunderground v.1.15,2013-04-04 14:41:00,
2013-04-04 10:42:00,43.6,24.7,30.22,ESE,103,0.0,9.0,47,0.00,,,0.00,Wunderground v.1.15,2013-04-04 14:42:00,
2013-04-04 10:44:00,43.8,23.3,30.22,ESE,103,1.0,9.0,44,0.00,,,0.00,Wunderground v.1.15,2013-04-04 14:44:00,
2013-04-04 10:45:00,43.9,23.4,30.22,East,83,0.0,9.0,44,0.00,,,0.00,Wunderground v.1.15,2013-04-04 14:45:00,
2013-04-04 10:47:00,44.1,23.0,30.22,ESE,108,0.0,9.0,43,0.00,,,0.00,Wunderground v.1.15,2013-04-04 14:47:00,
2013-04-04 10:51:00,44.4,23.3,30.22,ENE,65,0.0,9.0,43,0.00,,,0.00,Wunderground v.1.15,2013-04-04 14:51:00,
2013-04-04 10:52:00,44.6,24.0,30.22,SE,130,0.0,9.0,44,0.00,,,0.00,Wunderground v.1.15,2013-04-04 14:52:00,
2013-04-04 10:53:00,44.7,23.5,30.22,SE,126,0.0,9.0,43,0.00,,,0.00,Wunderground v.1.15,2013-04-04 14:53:00,
2013-04-04 10:58:00,45.5,24.8,30.23,East,94,0.0,9.0,44,0.00,,,0.00,Wunderground v.1.15,2013-04-04 14:58:00,
2013-04-04 10:59:00,45.7,24.5,30.23,SE,129,0.0,9.0,43,0.00,,,0.00,Wunderground v.1.15,2013-04-04 14:59:00,
2013-04-04 11:00:00,45.9,24.6,30.23,SSE,149,0.0,9.0,43,0.00,,,0.00,Wunderground v.1.15,2013-04-04 15:00:00,
2013-04-04 11:02:00,46.0,24.7,30.23,East,84,0.0,9.0,43,0.00,,,0.00,Wunderground v.1.15,2013-04-04 15:02:00,
2013-04-04 11:04:00,46.2,23.8,30.23,ESE,121,0.0,9.0,41,0.00,,,0.00,Wunderground v.1.15,2013-04-04 15:04:00,
2013-04-04 11:06:00,46.3,23.9,30.23,ESE,108,0.0,9.0,41,0.00,,,0.00,Wunderground v.1.15,2013-04-04 15:06:00,
2013-04-04 11:08:00,46.2,23.2,30.22,East,101,0.0,9.0,40,0.00,,,0.00,Wunderground v.1.15,2013-04-04 15:08:00,
2013-04-04 11:09:00,46.2,24.3,30.22,ESE,117,0.0,9.0,42,0.00,,,0.00,Wunderground v.1.15,2013-04-04 15:09:00,
2013-04-04 11:12:00,46.3,23.9,30.22,East,90,0.0,9.0,41,0.00,,,0.00,Wunderground v.1.15,2013-04-04 15:12:00,
2013-04-04 11:15:00,46.5,24.0,30.22,East,89,0.0,9.0,41,0.00,,,0.00,Wunderground v.1.15,2013-04-04 15:15:00,
2013-04-04 11:17:00,46.8,26.6,30.22,SE,145,0.0,9.0,45,0.00,,,0.00,Wunderground v.1.15,2013-04-04 15:17:00,
2013-04-04 11:20:00,46.9,25.0,30.22,ESE,119,0.0,9.0,42,0.00,,,0.00,Wunderground v.1.15,2013-04-04 15:20:00,
2013-04-04 11:22:00,46.8,24.3,30.23,East,92,0.0,9.0,41,0.00,,,0.00,Wunderground v.1.15,2013-04-04 15:22:00,
2013-04-04 11:23:00,46.8,24.9,30.23,East,90,0.0,9.0,42,0.00,,,0.00,Wunderground v.1.15,2013-04-04 15:23:00,
2013-04-04 11:25:00,46.8,24.3,30.24,ESE,116,0.0,9.0,41,0.00,,,0.00,Wunderground v.1.15,2013-04-04 15:25:00,
2013-04-04 11:28:00,46.9,25.0,30.23,SE,144,0.0,9.0,42,0.00,,,0.00,Wunderground v.1.15,2013-04-04 15:28:00,
2013-04-04 11:29:00,46.9,24.4,30.23,East,88,0.0,9.0,41,0.00,,,0.00,Wunderground v.1.15,2013-04-04 15:29:00,
2013-04-04 11:31:00,46.9,23.8,30.23,ENE,77,0.0,9.0,40,0.00,,,0.00,Wunderground v.1.15,2013-04-04 15:31:00,
2013-04-04 11:34:00,46.9,24.4,30.23,East,90,0.0,9.0,41,0.00,,,0.00,Wunderground v.1.15,2013-04-04 15:34:00,
2013-04-04 11:35:00,46.9,24.4,30.23,East,90,0.0,9.0,41,0.00,,,0.00,Wunderground v.1.15,2013-04-04 15:35:00,
2013-04-04 11:37:00,46.9,23.8,30.23,East,94,0.0,9.0,40,0.00,,,0.00,Wunderground v.1.15,2013-04-04 15:37:00,
2013-04-04 11:39:00,46.8,24.3,30.23,ESE,111,0.0,9.0,41,0.00,,,0.00,Wunderground v.1.15,2013-04-04 15:39:00,
2013-04-04 11:43:00,46.7,24.8,30.23,ESE,119,0.0,9.0,42,0.00,,,0.00,Wunderground v.1.15,2013-04-04 15:43:00,
2013-04-04 11:46:00,46.8,24.3,30.23,East,92,0.0,9.0,41,0.00,,,0.00,Wunderground v.1.15,2013-04-04 15:46:00,
2013-04-04 11:47:00,46.8,23.7,30.23,East,91,0.0,9.0,40,0.00,,,0.00,Wunderground v.1.15,2013-04-04 15:47:00,
2013-04-04 11:48:00,46.9,23.8,30.23,East,92,0.0,9.0,40,0.00,,,0.00,Wunderground v.1.15,2013-04-04 15:48:00,
2013-04-04 11:49:00,46.9,23.8,30.23,East,88,0.0,9.0,40,0.00,,,0.00,Wunderground v.1.15,2013-04-04 15:49:00,
2013-04-04 11:51:00,46.9,25.0,30.23,SE,145,0.0,9.0,42,0.00,,,0.00,Wunderground v.1.15,2013-04-04 15:51:00,
2013-04-04 11:52:00,46.9,23.8,30.23,SE,146,0.0,9.0,40,0.00,,,0.00,Wunderground v.1.15,2013-04-04 15:52:00,
2013-04-04 11:54:00,46.9,24.4,30.23,SE,128,0.0,9.0,41,0.00,,,0.00,Wunderground v.1.15,2013-04-04 15:54:00,
2013-04-04 11:55:00,46.9,24.4,30.23,SE,128,0.0,9.0,41,0.00,,,0.00,Wunderground v.1.15,2013-04-04 15:55:00,
2013-04-04 11:56:00,47.0,24.5,30.23,East,86,0.0,9.0,41,0.00,,,0.00,Wunderground v.1.15,2013-04-04 15:56:00,
2013-04-04 11:59:00,47.2,24.1,30.23,ENE,72,0.0,9.0,40,0.00,,,0.00,Wunderground v.1.15,2013-04-04 15:59:00,
2013-04-04 12:01:00,47.3,24.8,30.23,ENE,72,0.0,9.0,41,0.00,,,0.00,Wunderground v.1.15,2013-04-04 16:01:00,
2013-04-04 12:02:00,47.3,25.3,30.23,ENE,66,0.0,9.0,42,0.00,,,0.00,Wunderground v.1.15,2013-04-04 16:02:00,
2013-04-04 12:03:00,47.4,25.4,30.23,ENE,65,0.0,9.0,42,0.00,,,0.00,Wunderground v.1.15,2013-04-04 16:03:00,
2013-04-04 12:05:00,47.6,26.2,30.23,SE,128,0.0,9.0,43,0.00,,,0.00,Wunderground v.1.15,2013-04-04 16:05:00,
2013-04-04 12:08:00,47.8,24.0,30.23,South,173,0.0,9.0,39,0.00,,,0.00,Wunderground v.1.15,2013-04-04 16:08:00,
2013-04-04 12:10:00,47.7,25.1,30.23,South,173,0.0,9.0,41,0.00,,,0.00,Wunderground v.1.15,2013-04-04 16:10:00,
2013-04-04 12:12:00,47.8,25.2,30.23,East,86,0.0,9.0,41,0.00,,,0.00,Wunderground v.1.15,2013-04-04 16:12:00,
2013-04-04 12:15:00,47.8,24.0,30.23,ESE,113,0.0,9.0,39,0.00,,,0.00,Wunderground v.1.15,2013-04-04 16:15:00,
2013-04-04 12:18:00,47.8,24.6,30.22,ESE,102,0.0,9.0,40,0.00,,,0.00,Wunderground v.1.15,2013-04-04 16:18:00,
2013-04-04 12:21:00,47.9,24.7,30.22,SE,132,0.0,9.0,40,0.00,,,0.00,Wunderground v.1.15,2013-04-04 16:21:00,
2013-04-04 12:22:00,47.9,24.1,30.22,SE,132,0.0,9.0,39,0.00,,,0.00,Wunderground v.1.15,2013-04-04 16:22:00,
2013-04-04 12:24:00,47.8,24.6,30.23,ESE,108,0.0,9.0,40,0.00,,,0.00,Wunderground v.1.15,2013-04-04 16:24:00,
2013-04-04 12:25:00,47.8,24.6,30.22,ESE,113,0.0,9.0,40,0.00,,,0.00,Wunderground v.1.15,2013-04-04 16:25:00,
2013-04-04 12:26:00,47.8,24.6,30.22,ENE,66,0.0,9.0,40,0.00,,,0.00,Wunderground v.1.15,2013-04-04 16:26:00,
2013-04-04 12:30:00,47.8,24.0,30.22,ENE,78,0.0,9.0,39,0.00,,,0.00,Wunderground v.1.15,2013-04-04 16:30:00,
2013-04-04 12:32:00,47.8,24.6,30.22,ENE,77,0.0,9.0,40,0.00,,,0.00,Wunderground v.1.15,2013-04-04 16:32:00,
2013-04-04 12:35:00,48.1,25.5,30.22,East,92,0.0,9.0,41,0.00,,,0.00,Wunderground v.1.15,2013-04-04 16:35:00,
2013-04-04 12:36:00,48.2,26.2,30.22,East,92,0.0,9.0,42,0.00,,,0.00,Wunderground v.1.15,2013-04-04 16:36:00,
2013-04-04 12:37:00,48.3,26.2,30.22,East,92,0.0,9.0,42,0.00,,,0.00,Wunderground v.1.15,2013-04-04 16:37:00,
2013-04-04 12:39:00,48.5,24.6,30.22,East,96,0.0,9.0,39,0.00,,,0.00,Wunderground v.1.15,2013-04-04 16:39:00,
2013-04-04 12:41:00,48.6,25.3,30.22,East,96,0.0,9.0,40,0.00,,,0.00,Wunderground v.1.15,2013-04-04 16:41:00,
2013-04-04 12:43:00,48.8,26.7,30.22,NW,309,0.0,9.0,42,0.00,,,0.00,Wunderground v.1.15,2013-04-04 16:43:00,
2013-04-04 12:48:00,48.8,24.9,30.22,South,169,0.0,9.0,39,0.00,,,0.00,Wunderground v.1.15,2013-04-04 16:48:00,
2013-04-04 12:49:00,48.8,24.3,30.22,SSE,166,0.0,9.0,38,0.00,,,0.00,Wunderground v.1.15,2013-04-04 16:49:00,
2013-04-04 12:52:00,48.4,24.6,30.22,SSE,167,0.0,9.0,39,0.00,,,0.00,Wunderground v.1.15,2013-04-04 16:52:00,
2013-04-04 12:53:00,48.2,25.6,30.21,SSE,165,0.0,9.0,41,0.00,,,0.00,Wunderground v.1.15,2013-04-04 16:53:00,
2013-04-04 12:57:00,48.3,25.7,30.21,ENE,69,0.0,9.0,41,0.00,,,0.00,Wunderground v.1.15,2013-04-04 16:57:00,
2013-04-04 12:58:00,48.5,26.4,30.21,ENE,70,0.0,9.0,42,0.00,,,0.00,Wunderground v.1.15,2013-04-04 16:58:00,
2013-04-04 13:01:00,48.6,25.9,30.21,ENE,75,0.0,9.0,41,0.00,,,0.00,Wunderground v.1.15,2013-04-04 17:01:00,
2013-04-04 13:04:00,48.7,25.4,30.21,ESE,122,0.0,9.0,40,0.00,,,0.00,Wunderground v.1.15,2013-04-04 17:04:00,
2013-04-04 13:05:00,48.7,25.4,30.21,ESE,122,0.0,9.0,40,0.00,,,0.00,Wunderground v.1.15,2013-04-04 17:05:00,
2013-04-04 13:06:00,48.7,26.6,30.21,ESE,123,0.0,9.0,42,0.00,,,0.00,Wunderground v.1.15,2013-04-04 17:06:00,
2013-04-04 13:08:00,48.6,24.7,30.21,South,177,0.0,9.0,39,0.00,,,0.00,Wunderground v.1.15,2013-04-04 17:08:00,
2013-04-04 13:09:00,48.6,24.7,30.20,South,177,0.0,9.0,39,0.00,,,0.00,Wunderground v.1.15,2013-04-04 17:09:00,
2013-04-04 13:11:00,48.4,24.6,30.20,SSE,150,0.0,9.0,39,0.00,,,0.00,Wunderground v.1.15,2013-04-04 17:11:00,
2013-04-04 13:14:00,48.3,24.5,30.20,SE,146,0.0,9.0,39,0.00,,,0.00,Wunderground v.1.15,2013-04-04 17:14:00,
2013-04-04 13:16:00,48.3,24.5,30.21,SE,145,0.0,9.0,39,0.00,,,0.00,Wunderground v.1.15,2013-04-04 17:16:00,
2013-04-04 13:17:00,48.4,25.2,30.21,ESE,119,0.0,9.0,40,0.00,,,0.00,Wunderground v.1.15,2013-04-04 17:17:00,
2013-04-04 13:21:00,48.4,25.2,30.20,SE,137,0.0,9.0,40,0.00,,,0.00,Wunderground v.1.15,2013-04-04 17:21:00,
2013-04-04 13:22:00,48.4,25.2,30.20,ESE,109,0.0,9.0,40,0.00,,,0.00,Wunderground v.1.15,2013-04-04 17:22:00,
2013-04-04 13:27:00,48.5,25.2,30.20,SE,128,0.0,9.0,40,0.00,,,0.00,Wunderground v.1.15,2013-04-04 17:27:00,
2013-04-04 13:28:00,48.5,25.8,30.20,SE,128,0.0,9.0,41,0.00,,,0.00,Wunderground v.1.15,2013-04-04 17:28:00,
2013-04-04 13:29:00,48.6,25.9,30.20,SE,130,0.0,9.0,41,0.00,,,0.00,Wunderground v.1.15,2013-04-04 17:29:00,
2013-04-04 13:31:00,48.6,26.5,30.20,SE,130,0.0,9.0,42,0.00,,,0.00,Wunderground v.1.15,2013-04-04 17:31:00,
2013-04-04 13:34:00,48.6,25.3,30.20,South,189,0.0,9.0,40,0.00,,,0.00,Wunderground v.1.15,2013-04-04 17:34:00,
2013-04-04 13:37:00,48.7,25.4,30.19,SE,141,0.0,9.0,40,0.00,,,0.00,Wunderground v.1.15,2013-04-04 17:37:00,
2013-04-04 13:38:00,48.7,24.8,30.19,SE,133,0.0,9.0,39,0.00,,,0.00,Wunderground v.1.15,2013-04-04 17:38:00,
2013-04-04 13:40:00,48.7,25.4,30.19,ESE,119,0.0,9.0,40,0.00,,,0.00,Wunderground v.1.15,2013-04-04 17:40:00,
2013-04-04 13:41:00,48.8,25.5,30.19,ESE,119,0.0,9.0,40,0.00,,,0.00,Wunderground v.1.15,2013-04-04 17:41:00,
2013-04-04 13:45:00,48.8,25.5,30.19,SE,126,0.0,9.0,40,0.00,,,0.00,Wunderground v.1.15,2013-04-04 17:45:00,
2013-04-04 13:46:00,48.8,25.5,30.19,SE,126,0.0,9.0,40,0.00,,,0.00,Wunderground v.1.15,2013-04-04 17:46:00,
2013-04-04 13:47:00,48.9,26.2,30.19,SE,126,0.0,9.0,41,0.00,,,0.00,Wunderground v.1.15,2013-04-04 17:47:00,
2013-04-04 13:50:00,49.0,25.7,30.19,SE,126,0.0,9.0,40,0.00,,,0.00,Wunderground v.1.15,2013-04-04 17:50:00,
2013-04-04 13:53:00,49.2,25.9,30.18,SE,134,0.0,9.0,40,0.00,,,0.00,Wunderground v.1.15,2013-04-04 17:53:00,
2013-04-04 13:55:00,49.4,26.1,30.18,SE,130,0.0,9.0,40,0.00,,,0.00,Wunderground v.1.15,2013-04-04 17:55:00,
2013-04-04 13:57:00,49.5,24.9,30.18,SE,138,0.0,9.0,38,0.00,,,0.00,Wunderground v.1.15,2013-04-04 17:57:00,
2013-04-04 14:01:00,49.7,25.7,30.18,SE,128,0.0,9.0,39,0.00,,,0.00,Wunderground v.1.15,2013-04-04 18:01:00,
2013-04-04 14:03:00,49.7,25.7,30.18,SSW,208,1.0,9.0,39,0.00,,,0.00,Wunderground v.1.15,2013-04-04 18:03:00,
2013-04-04 14:05:00,49.7,25.1,30.18,SSW,208,1.0,9.0,38,0.00,,,0.00,Wunderground v.1.15,2013-04-04 18:05:00,
2013-04-04 14:06:00,49.7,25.7,30.18,East,93,1.0,9.0,39,0.00,,,0.00,Wunderground v.1.15,2013-04-04 18:06:00,
2013-04-04 14:08:00,49.8,26.4,30.18,SSE,155,0.0,9.0,40,0.00,,,0.00,Wunderground v.1.15,2013-04-04 18:08:00,
2013-04-04 14:11:00,49.7,25.7,30.18,SW,236,0.0,9.0,39,0.00,,,0.00,Wunderground v.1.15,2013-04-04 18:11:00,
2013-04-04 14:12:00,49.7,26.3,30.18,SW,236,0.0,9.0,40,0.00,,,0.00,Wunderground v.1.15,2013-04-04 18:12:00,
2013-04-04 14:17:00,49.8,25.8,30.17,SSW,213,0.0,9.0,39,0.00,,,0.00,Wunderground v.1.15,2013-04-04 18:17:00,
2013-04-04 14:18:00,49.8,25.8,30.17,SSW,205,1.0,9.0,39,0.00,,,0.00,Wunderground v.1.15,2013-04-04 18:18:00,
2013-04-04 14:20:00,49.7,24.5,30.17,SW,215,1.0,9.0,37,0.00,,,0.00,Wunderground v.1.15,2013-04-04 18:20:00,
2013-04-04 14:23:00,49.8,25.8,30.18,SSW,209,1.0,9.0,39,0.00,,,0.00,Wunderground v.1.15,2013-04-04 18:23:00,
2013-04-04 14:24:00,49.8,25.8,30.18,SSW,209,1.0,9.0,39,0.00,,,0.00,Wunderground v.1.15,2013-04-04 18:24:00,
2013-04-04 14:25:00,49.9,27.7,30.17,SE,144,1.0,9.0,42,0.00,,,0.00,Wunderground v.1.15,2013-04-04 18:25:00,
2013-04-04 14:28:00,50.2,28.5,30.17,West,268,1.0,9.0,43,0.00,,,0.00,Wunderground v.1.15,2013-04-04 18:28:00,
2013-04-04 14:29:00,50.3,28.1,30.17,SW,233,0.0,9.0,42,0.00,,,0.00,Wunderground v.1.15,2013-04-04 18:29:00,
2013-04-04 14:30:00,50.4,27.0,30.17,SW,233,0.0,9.0,40,0.00,,,0.00,Wunderground v.1.15,2013-04-04 18:30:00,
2013-04-04 14:31:00,50.4,26.3,30.17,SSW,207,0.0,9.0,39,0.00,,,0.00,Wunderground v.1.15,2013-04-04 18:31:00,
2013-04-04 14:35:00,50.2,26.2,30.17,SW,215,0.0,9.0,39,0.00,,,0.00,Wunderground v.1.15,2013-04-04 18:35:00,
2013-04-04 14:37:00,50.0,25.4,30.17,SW,228,1.0,9.0,38,0.00,,,0.00,Wunderground v.1.15,2013-04-04 18:37:00,
2013-04-04 14:38:00,50.0,26.0,30.17,SW,232,1.0,9.0,39,0.00,,,0.00,Wunderground v.1.15,2013-04-04 18:38:00,
2013-04-04 14:39:00,50.0,26.0,30.17,SW,228,1.0,9.0,39,0.00,,,0.00,Wunderground v.1.15,2013-04-04 18:39:00,
2013-04-04 14:40:00,49.9,27.1,30.17,WSW,245,1.0,9.0,41,0.00,,,0.00,Wunderground v.1.15,2013-04-04 18:40:00,
2013-04-04 14:45:00,49.9,26.5,30.16,South,191,1.0,9.0,40,0.00,,,0.00,Wunderground v.1.15,2013-04-04 18:45:00,
2013-04-04 14:46:00,49.9,25.9,30.16,SSW,207,1.0,9.0,39,0.00,,,0.00,Wunderground v.1.15,2013-04-04 18:46:00,
2013-04-04 14:47:00,49.9,25.9,30.16,SW,228,1.0,9.0,39,0.00,,,0.00,Wunderground v.1.15,2013-04-04 18:47:00,
2013-04-04 14:51:00,50.0,26.0,30.16,SW,228,1.0,1.0,39,0.00,,,0.00,Wunderground v.1.15,2013-04-04 18:51:00,
2013-04-04 14:53:00,50.1,28.4,30.16,SW,223,1.0,9.0,43,0.00,,,0.00,Wunderground v.1.15,2013-04-04 18:53:00,
2013-04-04 14:56:00,50.2,26.2,30.16,WSW,241,1.0,9.0,39,0.00,,,0.00,Wunderground v.1.15,2013-04-04 18:56:00,
2013-04-04 14:58:00,50.3,26.3,30.16,SW,229,1.0,9.0,39,0.00,,,0.00,Wunderground v.1.15,2013-04-04 18:58:00,
2013-04-04 14:59:00,50.3,25.6,30.16,WSW,254,1.0,9.0,38,0.00,,,0.00,Wunderground v.1.15,2013-04-04 18:59:00,
2013-04-04 15:02:00,50.2,24.9,30.16,West,263,2.0,9.0,37,0.00,,,0.00,Wunderground v.1.15,2013-04-04 19:02:00,
2013-04-04 15:03:00,50.2,26.2,30.16,WSW,250,2.0,9.0,39,0.00,,,0.00,Wunderground v.1.15,2013-04-04 19:03:00,
2013-04-04 15:04:00,50.1,24.8,30.16,WSW,248,2.0,9.0,37,0.00,,,0.00,Wunderground v.1.15,2013-04-04 19:04:00,
2013-04-04 15:05:00,50.1,24.8,30.16,West,272,2.0,9.0,37,0.00,,,0.00,Wunderground v.1.15,2013-04-04 19:05:00,
2013-04-04 15:08:00,50.1,26.1,30.16,WSW,248,2.0,9.0,39,0.00,,,0.00,Wunderground v.1.15,2013-04-04 19:08:00,
2013-04-04 15:09:00,50.1,25.5,30.16,WSW,247,2.0,9.0,38,0.00,,,0.00,Wunderground v.1.15,2013-04-04 19:09:00,
2013-04-04 15:11:00,50.0,25.4,30.16,WSW,246,2.0,9.0,38,0.00,,,0.00,Wunderground v.1.15,2013-04-04 19:11:00,
2013-04-04 15:15:00,50.0,26.6,30.16,West,277,2.0,9.0,40,0.00,,,0.00,Wunderground v.1.15,2013-04-04 19:15:00,
2013-04-04 15:16:00,50.1,27.9,30.16,West,276,2.0,9.0,42,0.00,,,0.00,Wunderground v.1.15,2013-04-04 19:16:00,
2013-04-04 15:17:00,50.1,27.3,30.16,SW,219,2.0,9.0,41,0.00,,,0.00,Wunderground v.1.15,2013-04-04 19:17:00,
2013-04-04 15:20:00,50.0,26.0,30.15,SSW,192,2.0,2.0,39,0.00,,,0.00,Wunderground v.1.15,2013-04-04 19:20:00,
2013-04-04 15:23:00,50.0,25.4,30.15,West,270,2.0,9.0,38,0.00,,,0.00,Wunderground v.1.15,2013-04-04 19:23:00,
2013-04-04 15:24:00,49.9,25.3,30.15,WSW,237,2.0,9.0,38,0.00,,,0.00,Wunderground v.1.15,2013-04-04 19:24:00,
2013-04-04 15:25:00,49.9,25.3,30.15,SW,231,2.0,9.0,38,0.00,,,0.00,Wunderground v.1.15,2013-04-04 19:25:00,
2013-04-04 15:27:00,49.8,25.8,30.15,WSW,246,3.0,9.0,39,0.00,,,0.00,Wunderground v.1.15,2013-04-04 19:27:00,
2013-04-04 15:32:00,49.8,25.8,30.15,WSW,246,2.0,9.0,39,0.00,,,0.00,Wunderground v.1.15,2013-04-04 19:32:00,
2013-04-04 15:34:00,49.8,26.4,30.15,West,268,1.0,9.0,40,0.00,,,0.00,Wunderground v.1.15,2013-04-04 19:34:00,
2013-04-04 15:37:00,49.8,25.8,30.15,SSW,205,1.0,9.0,39,0.00,,,0.00,Wunderground v.1.15,2013-04-04 19:37:00,
2013-04-04 15:40:00,49.8,26.4,30.15,SSW,211,0.0,9.0,40,0.00,,,0.00,Wunderground v.1.15,2013-04-04 19:40:00,
2013-04-04 15:42:00,49.9,27.1,30.15,WSW,246,0.0,9.0,41,0.00,,,0.00,Wunderground v.1.15,2013-04-04 19:42:00,
2013-04-04 15:43:00,49.9,25.9,30.15,WSW,249,0.0,9.0,39,0.00,,,0.00,Wunderground v.1.15,2013-04-04 19:43:00,
2013-04-04 15:44:00,49.9,25.9,30.15,WSW,248,0.0,9.0,39,0.00,,,0.00,Wunderground v.1.15,2013-04-04 19:44:00,
2013-04-04 15:48:00,49.9,25.9,30.15,South,182,0.0,9.0,39,0.00,,,0.00,Wunderground v.1.15,2013-04-04 19:48:00,
2013-04-04 15:49:00,49.9,25.9,30.15,South,182,0.0,9.0,39,0.00,,,0.00,Wunderground v.1.15,2013-04-04 19:49:00,
2013-04-04 15:50:00,49.9,26.5,30.15,West,273,0.0,9.0,40,0.00,,,0.00,Wunderground v.1.15,2013-04-04 19:50:00,
2013-04-04 15:54:00,50.0,27.2,30.15,South,179,0.0,9.0,41,0.00,,,0.00,Wunderground v.1.15,2013-04-04 19:54:00,
2013-04-04 15:57:00,50.0,26.6,30.15,West,269,0.0,9.0,40,0.00,,,0.00,Wunderground v.1.15,2013-04-04 19:57:00,
2013-04-04 15:58:00,50.0,26.0,30.15,WSW,251,0.0,9.0,39,0.00,,,0.00,Wunderground v.1.15,2013-04-04 19:58:00,
2013-04-04 16:02:00,50.0,26.6,30.15,West,263,0.0,9.0,40,0.00,,,0.00,Wunderground v.1.15,2013-04-04 20:02:00,
2013-04-04 16:04:00,50.0,26.6,30.15,WNW,296,0.0,9.0,40,0.00,,,0.00,Wunderground v.1.15,2013-04-04 20:04:00,
2013-04-04 16:05:00,50.0,26.0,30.15,WNW,296,0.0,9.0,39,0.00,,,0.00,Wunderground v.1.15,2013-04-04 20:05:00,
2013-04-04 16:08:00,50.0,27.8,30.15,West,259,0.0,9.0,42,0.00,,,0.00,Wunderground v.1.15,2013-04-04 20:08:00,
2013-04-04 16:09:00,50.1,27.9,30.15,West,259,0.0,9.0,42,0.00,,,0.00,Wunderground v.1.15,2013-04-04 20:09:00,
2013-04-04 16:12:00,50.1,26.7,30.15,WSW,258,0.0,9.0,40,0.00,,,0.00,Wunderground v.1.15,2013-04-04 20:12:00,
2013-04-04 16:13:00,50.1,26.1,30.14,WSW,258,0.0,9.0,39,0.00,,,0.00,Wunderground v.1.15,2013-04-04 20:13:00,
2013-04-04 16:15:00,50.1,26.1,30.14,WSW,258,0.0,9.0,39,0.00,,,0.00,Wunderground v.1.15,2013-04-04 20:15:00,
2013-04-04 16:17:00,50.1,26.7,30.14,WSW,258,0.0,9.0,40,0.00,,,0.00,Wunderground v.1.15,2013-04-04 20:17:00,
2013-04-04 16:19:00,50.1,26.1,30.14,WSW,258,0.0,9.0,39,0.00,,,0.00,Wunderground v.1.15,2013-04-04 20:19:00,
2013-04-04 16:23:00,50.3,28.1,30.14,SW,229,0.0,9.0,42,0.00,,,0.00,Wunderground v.1.15,2013-04-04 20:23:00,
2013-04-04 16:24:00,50.3,28.1,30.14,SSE,168,0.0,9.0,42,0.00,,,0.00,Wunderground v.1.15,2013-04-04 20:24:00,
2013-04-04 16:28:00,50.3,26.9,30.14,South,178,0.0,9.0,40,0.00,,,0.00,Wunderground v.1.15,2013-04-04 20:28:00,
2013-04-04 16:31:00,50.3,27.5,30.14,West,281,0.0,9.0,41,0.00,,,0.00,Wunderground v.1.15,2013-04-04 20:31:00,
2013-04-04 16:32:00,50.4,27.0,30.14,West,277,0.0,9.0,40,0.00,,,0.00,Wunderground v.1.15,2013-04-04 20:32:00,
2013-04-04 16:34:00,50.4,27.0,30.14,West,277,0.0,9.0,40,0.00,,,0.00,Wunderground v.1.15,2013-04-04 20:34:00,
2013-04-04 16:37:00,50.5,27.0,30.14,WSW,249,0.0,9.0,40,0.00,,,0.00,Wunderground v.1.15,2013-04-04 20:37:00,
2013-04-04 16:38:00,50.5,27.0,30.14,WSW,249,0.0,9.0,40,0.00,,,0.00,Wunderground v.1.15,2013-04-04 20:38:00,
2013-04-04 16:39:00,50.5,27.7,30.14,WSW,249,0.0,9.0,41,0.00,,,0.00,Wunderground v.1.15,2013-04-04 20:39:00,
2013-04-04 16:42:00,50.5,27.0,30.14,WSW,249,0.0,9.0,40,0.00,,,0.00,Wunderground v.1.15,2013-04-04 20:42:00,
2013-04-04 16:45:00,50.6,27.1,30.14,West,259,0.0,9.0,40,0.00,,,0.00,Wunderground v.1.15,2013-04-04 20:45:00,
2013-04-04 16:46:00,50.6,27.1,30.14,West,265,0.0,9.0,40,0.00,,,0.00,Wunderground v.1.15,2013-04-04 20:46:00,
2013-04-04 16:47:00,50.6,27.7,30.14,WSW,246,0.0,9.0,41,0.00,,,0.00,Wunderground v.1.15,2013-04-04 20:47:00,
2013-04-04 16:50:00,50.6,27.1,30.14,WSW,246,0.0,9.0,40,0.00,,,0.00,Wunderground v.1.15,2013-04-04 20:50:00,
2013-04-04 16:52:00,50.6,27.1,30.14,WSW,246,0.0,9.0,40,0.00,,,0.00,Wunderground v.1.15,2013-04-04 20:52:00,
2013-04-04 16:53:00,50.6,27.7,30.14,WSW,246,0.0,9.0,41,0.00,,,0.00,Wunderground v.1.15,2013-04-04 20:53:00,
2013-04-04 16:57:00,50.8,27.3,30.14,West,265,0.0,9.0,40,0.00,,,0.00,Wunderground v.1.15,2013-04-04 20:57:00,
2013-04-04 16:58:00,50.8,27.3,30.14,West,266,0.0,9.0,40,0.00,,,0.00,Wunderground v.1.15,2013-04-04 20:58:00,
2013-04-04 17:02:00,50.7,27.8,30.14,WSW,246,1.0,9.0,41,0.00,,,0.00,Wunderground v.1.15,2013-04-04 21:02:00,
2013-04-04 17:03:00,50.7,27.8,30.14,SW,235,1.0,9.0,41,0.00,,,0.00,Wunderground v.1.15,2013-04-04 21:03:00,
2013-04-04 17:05:00,50.9,28.0,30.14,West,269,1.0,9.0,41,0.00,,,0.00,Wunderground v.1.15,2013-04-04 21:05:00,
2013-04-04 17:07:00,50.9,27.4,30.14,WSW,254,1.0,9.0,40,0.00,,,0.00,Wunderground v.1.15,2013-04-04 21:07:00,
2013-04-04 17:11:00,51.0,28.1,30.14,WSW,245,0.0,9.0,41,0.00,,,0.00,Wunderground v.1.15,2013-04-04 21:11:00,
2013-04-04 17:13:00,51.0,27.5,30.14,SW,232,0.0,9.0,40,0.00,,,0.00,Wunderground v.1.15,2013-04-04 21:13:00,
2013-04-04 17:15:00,51.0,27.5,30.14,WSW,245,0.0,9.0,40,0.00,,,0.00,Wunderground v.1.15,2013-04-04 21:15:00,
2013-04-04 17:17:00,51.2,30.0,30.14,WSW,245,0.0,9.0,44,0.00,,,0.00,Wunderground v.1.15,2013-04-04 21:17:00,
2013-04-04 17:18:00,51.3,30.1,30.14,WSW,245,0.0,9.0,44,0.00,,,0.00,Wunderground v.1.15,2013-04-04 21:18:00,
2013-04-04 17:20:00,51.4,29.1,30.14,WSW,245,0.0,9.0,42,0.00,,,0.00,Wunderground v.1.15,2013-04-04 21:20:00,
2013-04-04 17:24:00,51.7,28.7,30.13,WNW,286,0.0,9.0,41,0.00,,,0.00,Wunderground v.1.15,2013-04-04 21:24:00,
2013-04-04 17:26:00,51.7,28.7,30.13,WNW,286,0.0,9.0,41,0.00,,,0.00,Wunderground v.1.15,2013-04-04 21:26:00,
2013-04-04 17:30:00,52.0,28.4,30.13,SW,219,0.0,9.0,40,0.00,,,0.00,Wunderground v.1.15,2013-04-04 21:30:00,
2013-04-04 17:31:00,52.0,29.0,30.13,SW,219,0.0,9.0,41,0.00,,,0.00,Wunderground v.1.15,2013-04-04 21:31:00,
2013-04-04 17:32:00,52.1,29.1,30.13,SW,221,0.0,9.0,41,0.00,,,0.00,Wunderground v.1.15,2013-04-04 21:32:00,
2013-04-04 17:34:00,52.2,29.2,30.13,SW,221,0.0,9.0,41,0.00,,,0.00,Wunderground v.1.15,2013-04-04 21:34:00,
2013-04-04 17:35:00,52.2,29.2,30.13,SW,221,0.0,9.0,41,0.00,,,0.00,Wunderground v.1.15,2013-04-04 21:35:00,
2013-04-04 17:36:00,52.3,28.7,30.13,SW,221,0.0,9.0,40,0.00,,,0.00,Wunderground v.1.15,2013-04-04 21:36:00,
2013-04-04 17:39:00,52.4,30.0,30.13,SW,221,0.0,9.0,42,0.00,,,0.00,Wunderground v.1.15,2013-04-04 21:39:00,
2013-04-04 17:41:00,52.5,29.5,30.13,South,183,0.0,9.0,41,0.00,,,0.00,Wunderground v.1.15,2013-04-04 21:41:00,
2013-04-04 17:43:00,52.4,29.4,30.13,South,188,0.0,9.0,41,0.00,,,0.00,Wunderground v.1.15,2013-04-04 21:43:00,
2013-04-04 17:48:00,52.4,30.5,30.13,WSW,256,0.0,9.0,43,0.00,,,0.00,Wunderground v.1.15,2013-04-04 21:48:00,
2013-04-04 17:49:00,52.3,29.9,30.13,West,261,1.0,9.0,42,0.00,,,0.00,Wunderground v.1.15,2013-04-04 21:49:00,
2013-04-04 17:50:00,52.2,29.8,30.13,SW,216,1.0,9.0,42,0.00,,,0.00,Wunderground v.1.15,2013-04-04 21:50:00,
2013-04-04 17:51:00,52.1,29.7,30.13,SW,236,1.0,1.0,42,0.00,,,0.00,Wunderground v.1.15,2013-04-04 21:51:00,
2013-04-04 17:56:00,51.7,29.9,30.13,SW,236,1.0,9.0,43,0.00,,,0.00,Wunderground v.1.15,2013-04-04 21:56:00,
2013-04-04 17:57:00,51.8,30.6,30.13,SW,236,1.0,9.0,44,0.00,,,0.00,Wunderground v.1.15,2013-04-04 21:57:00,
2013-04-04 17:59:00,51.9,30.1,30.13,SSW,192,0.0,9.0,43,0.00,,,0.00,Wunderground v.1.15,2013-04-04 21:59:00,
2013-04-04 18:02:00,51.9,29.5,30.13,SW,225,0.0,9.0,42,0.00,,,0.00,Wunderground v.1.15,2013-04-04 22:02:00,
2013-04-04 18:03:00,51.9,29.5,30.13,SSW,205,0.0,9.0,42,0.00,,,0.00,Wunderground v.1.15,2013-04-04 22:03:00,
2013-04-04 18:07:00,51.8,30.0,30.13,SW,221,0.0,9.0,43,0.00,,,0.00,Wunderground v.1.15,2013-04-04 22:07:00,
2013-04-04 18:08:00,51.8,30.0,30.13,SSW,198,1.0,9.0,43,0.00,,,0.00,Wunderground v.1.15,2013-04-04 22:08:00,
2013-04-04 18:10:00,51.8,30.0,30.13,WSW,240,1.0,1.0,43,0.00,,,0.00,Wunderground v.1.15,2013-04-04 22:10:00,
2013-04-04 18:13:00,51.7,29.9,30.13,SSW,205,1.0,9.0,43,0.00,,,0.00,Wunderground v.1.15,2013-04-04 22:13:00,
2013-04-04 18:14:00,51.7,29.9,30.13,SW,214,1.0,9.0,43,0.00,,,0.00,Wunderground v.1.15,2013-04-04 22:14:00,
2013-04-04 18:16:00,51.6,29.2,30.13,South,191,1.0,9.0,42,0.00,,,0.00,Wunderground v.1.15,2013-04-04 22:16:00,
2013-04-04 18:21:00,51.5,30.3,30.13,SSW,196,1.0,9.0,44,0.00,,,0.00,Wunderground v.1.15,2013-04-04 22:21:00,
2013-04-04 18:25:00,51.6,30.9,30.13,SW,226,1.0,9.0,45,0.00,,,0.00,Wunderground v.1.15,2013-04-04 22:25:00,
2013-04-04 18:27:00,51.6,30.9,30.13,SW,236,1.0,9.0,45,0.00,,,0.00,Wunderground v.1.15,2013-04-04 22:27:00,
2013-04-04 18:31:00,51.6,30.9,30.13,SW,236,0.0,9.0,45,0.00,,,0.00,Wunderground v.1.15,2013-04-04 22:31:00,
2013-04-04 18:32:00,51.6,31.5,30.13,SW,236,0.0,9.0,46,0.00,,,0.00,Wunderground v.1.15,2013-04-04 22:32:00,
2013-04-04 18:33:00,51.5,30.8,30.13,SW,236,0.0,9.0,45,0.00,,,0.00,Wunderground v.1.15,2013-04-04 22:33:00,
2013-04-04 18:37:00,51.5,30.8,30.13,SW,236,0.0,9.0,45,0.00,,,0.00,Wunderground v.1.15,2013-04-04 22:37:00,
2013-04-04 18:38:00,51.5,31.4,30.13,WSW,257,0.0,9.0,46,0.00,,,0.00,Wunderground v.1.15,2013-04-04 22:38:00,
2013-04-04 18:41:00,51.5,31.9,30.13,WSW,258,0.0,9.0,47,0.00,,,0.00,Wunderground v.1.15,2013-04-04 22:41:00,
2013-04-04 18:43:00,51.5,31.4,30.12,WSW,250,0.0,9.0,46,0.00,,,0.00,Wunderground v.1.15,2013-04-04 22:43:00,
2013-04-04 18:44:00,51.4,31.3,30.13,WSW,250,0.0,9.0,46,0.00,,,0.00,Wunderground v.1.15,2013-04-04 22:44:00,
2013-04-04 18:46:00,51.4,31.8,30.13,WSW,248,0.0,9.0,47,0.00,,,0.00,Wunderground v.1.15,2013-04-04 22:46:00,
2013-04-04 18:47:00,51.4,31.3,30.13,WSW,248,0.0,9.0,46,0.00,,,0.00,Wunderground v.1.15,2013-04-04 22:47:00,
2013-04-04 18:51:00,51.4,31.3,30.13,SW,215,0.0,9.0,46,0.00,,,0.00,Wunderground v.1.15,2013-04-04 22:51:00,
2013-04-04 18:56:00,51.3,31.2,30.13,WSW,242,0.0,9.0,46,0.00,,,0.00,Wunderground v.1.15,2013-04-04 22:56:00,
2013-04-04 18:57:00,51.3,32.3,30.13,WSW,242,0.0,9.0,48,0.00,,,0.00,Wunderground v.1.15,2013-04-04 22:57:00,
2013-04-04 19:00:00,51.3,30.7,30.13,WSW,242,0.0,9.0,45,0.00,,,0.00,Wunderground v.1.15,2013-04-04 23:00:00,
2013-04-04 19:02:00,51.3,31.2,30.13,WSW,242,0.0,9.0,46,0.00,,,0.00,Wunderground v.1.15,2013-04-04 23:02:00,
2013-04-04 19:03:00,51.3,31.2,30.13,WSW,242,0.0,9.0,46,0.00,,,0.00,Wunderground v.1.15,2013-04-04 23:03:00,
2013-04-04 19:06:00,51.3,31.2,30.13,WSW,242,0.0,9.0,46,0.00,,,0.00,Wunderground v.1.15,2013-04-04 23:06:00,
2013-04-04 19:08:00,51.3,31.2,30.12,WSW,242,0.0,9.0,46,0.00,,,0.00,Wunderground v.1.15,2013-04-04 23:08:00,
2013-04-04 19:09:00,51.3,31.2,30.13,WSW,242,0.0,9.0,46,0.00,,,0.00,Wunderground v.1.15,2013-04-04 23:09:00,
2013-04-04 19:11:00,51.2,31.1,30.13,WSW,242,0.0,9.0,46,0.00,,,0.00,Wunderground v.1.15,2013-04-04 23:11:00,
2013-04-04 19:14:00,51.3,31.7,30.12,WSW,242,0.0,9.0,47,0.00,,,0.00,Wunderground v.1.15,2013-04-04 23:14:00,
2013-04-04 19:16:00,51.2,32.7,30.13,WSW,242,0.0,9.0,49,0.00,,,0.00,Wunderground v.1.15,2013-04-04 23:16:00,
2013-04-04 19:19:00,51.2,31.1,30.12,WSW,242,0.0,9.0,46,0.00,,,0.00,Wunderground v.1.15,2013-04-04 23:19:00,
2013-04-04 19:21:00,51.2,31.1,30.13,WSW,242,0.0,9.0,46,0.00,,,0.00,Wunderground v.1.15,2013-04-04 23:21:00,
2013-04-04 19:26:00,51.2,31.1,30.12,WSW,242,0.0,9.0,46,0.00,,,0.00,Wunderground v.1.15,2013-04-04 23:26:00,
2013-04-04 19:28:00,51.1,31.0,30.12,WSW,242,0.0,9.0,46,0.00,,,0.00,Wunderground v.1.15,2013-04-04 23:28:00,
2013-04-04 19:29:00,51.1,31.0,30.12,WSW,242,0.0,9.0,46,0.00,,,0.00,Wunderground v.1.15,2013-04-04 23:29:00,
2013-04-04 19:31:00,51.1,31.6,30.12,WSW,242,0.0,9.0,47,0.00,,,0.00,Wunderground v.1.15,2013-04-04 23:31:00,
2013-04-04 19:34:00,51.1,31.0,30.12,WSW,242,0.0,9.0,46,0.00,,,0.00,Wunderground v.1.15,2013-04-04 23:34:00,
2013-04-04 19:35:00,51.1,31.0,30.12,WSW,242,0.0,9.0,46,0.00,,,0.00,Wunderground v.1.15,2013-04-04 23:35:00,
2013-04-04 19:37:00,51.1,31.0,30.12,WSW,242,0.0,9.0,46,0.00,,,0.00,Wunderground v.1.15,2013-04-04 23:37:00,
2013-04-04 19:38:00,51.0,30.9,30.12,WSW,242,0.0,9.0,46,0.00,,,0.00,Wunderground v.1.15,2013-04-04 23:38:00,
2013-04-04 19:40:00,51.0,30.9,30.12,WSW,242,0.0,9.0,46,0.00,,,0.00,Wunderground v.1.15,2013-04-04 23:40:00,
2013-04-04 19:42:00,51.0,30.9,30.12,WSW,242,0.0,9.0,46,0.00,,,0.00,Wunderground v.1.15,2013-04-04 23:42:00,
2013-04-04 19:43:00,51.0,30.9,30.12,WSW,242,0.0,9.0,46,0.00,,,0.00,Wunderground v.1.15,2013-04-04 23:43:00,
2013-04-04 19:48:00,50.9,31.4,30.12,WSW,242,0.0,9.0,47,0.00,,,0.00,Wunderground v.1.15,2013-04-04 23:48:00,
2013-04-04 19:49:00,50.8,31.3,30.12,WSW,242,0.0,9.0,47,0.00,,,0.00,Wunderground v.1.15,2013-04-04 23:49:00,
2013-04-04 19:51:00,50.8,31.3,30.11,WSW,242,0.0,9.0,47,0.00,,,0.00,Wunderground v.1.15,2013-04-04 23:51:00,
2013-04-04 19:52:00,50.8,31.3,30.11,WSW,242,0.0,9.0,47,0.00,,,0.00,Wunderground v.1.15,2013-04-04 23:52:00,
2013-04-04 19:57:00,50.6,31.6,30.11,WSW,242,0.0,9.0,48,0.00,,,0.00,Wunderground v.1.15,2013-04-04 23:57:00,
2013-04-04 19:58:00,50.6,32.1,30.11,WSW,242,0.0,9.0,49,0.00,,,0.00,Wunderground v.1.15,2013-04-04 23:58:00,
2013-04-04 19:59:00,50.6,32.1,30.11,WSW,242,0.0,9.0,49,0.00,,,0.00,Wunderground v.1.15,2013-04-04 23:59:00,
2013-04-04 20:02:00,50.5,32.0,30.11,WSW,242,0.0,9.0,49,0.00,,,0.00,Wunderground v.1.15,2013-04-05 00:02:00,
2013-04-04 20:05:00,50.4,32.4,30.11,WSW,242,0.0,9.0,50,0.00,,,0.00,Wunderground v.1.15,2013-04-05 00:05:00,
2013-04-04 20:07:00,50.3,32.8,30.11,WSW,242,0.0,9.0,51,0.00,,,0.00,Wunderground v.1.15,2013-04-05 00:07:00,
2013-04-04 20:08:00,50.3,32.4,30.11,WSW,242,0.0,9.0,50,0.00,,,0.00,Wunderground v.1.15,2013-04-05 00:08:00,
2013-04-04 20:12:00,50.1,32.7,30.11,WSW,242,0.0,9.0,51,0.00,,,0.00,Wunderground v.1.15,2013-04-05 00:12:00,
2013-04-04 20:13:00,50.1,32.7,30.11,WSW,242,0.0,9.0,51,0.00,,,0.00,Wunderground v.1.15,2013-04-05 00:13:00,
2013-04-04 20:14:00,50.1,32.7,30.11,WSW,242,0.0,9.0,51,0.00,,,0.00,Wunderground v.1.15,2013-04-05 00:14:00,
2013-04-04 20:16:00,50.1,32.7,30.11,WSW,242,0.0,9.0,51,0.00,,,0.00,Wunderground v.1.15,2013-04-05 00:16:00,
2013-04-04 20:19:00,49.9,32.5,30.11,WSW,242,0.0,9.0,51,0.00,,,0.00,Wunderground v.1.15,2013-04-05 00:19:00,
2013-04-04 20:20:00,49.9,32.5,30.11,WSW,242,0.0,9.0,51,0.00,,,0.00,Wunderground v.1.15,2013-04-05 00:20:00,
2013-04-04 20:22:00,49.8,32.9,30.11,WSW,242,0.0,9.0,52,0.00,,,0.00,Wunderground v.1.15,2013-04-05 00:22:00,
2013-04-04 20:24:00,49.8,32.9,30.11,WSW,242,0.0,9.0,52,0.00,,,0.00,Wunderground v.1.15,2013-04-05 00:24:00,
2013-04-04 20:26:00,49.7,32.8,30.11,WSW,242,0.0,9.0,52,0.00,,,0.00,Wunderground v.1.15,2013-04-05 00:26:00,
2013-04-04 20:27:00,49.7,32.8,30.11,WSW,242,0.0,9.0,52,0.00,,,0.00,Wunderground v.1.15,2013-04-05 00:27:00,
2013-04-04 20:28:00,49.6,32.7,30.11,WSW,242,0.0,9.0,52,0.00,,,0.00,Wunderground v.1.15,2013-04-05 00:28:00,
2013-04-04 20:32:00,49.5,32.6,30.11,ESE,121,0.0,9.0,52,0.00,,,0.00,Wunderground v.1.15,2013-04-05 00:32:00,
2013-04-04 20:34:00,49.5,32.6,30.11,ESE,121,0.0,9.0,52,0.00,,,0.00,Wunderground v.1.15,2013-04-05 00:34:00,
2013-04-04 20:36:00,49.4,33.0,30.11,ESE,121,0.0,9.0,53,0.00,,,0.00,Wunderground v.1.15,2013-04-05 00:36:00,
2013-04-04 20:39:00,49.4,33.0,30.11,ESE,121,0.0,9.0,53,0.00,,,0.00,Wunderground v.1.15,2013-04-05 00:39:00,
2013-04-04 20:42:00,49.3,32.9,30.11,SE,136,0.0,9.0,53,0.00,,,0.00,Wunderground v.1.15,2013-04-05 00:42:00,
2013-04-04 20:44:00,49.2,32.8,30.11,SE,135,0.0,9.0,53,0.00,,,0.00,Wunderground v.1.15,2013-04-05 00:44:00,
2013-04-04 20:45:00,49.1,33.2,30.11,SE,135,0.0,9.0,54,0.00,,,0.00,Wunderground v.1.15,2013-04-05 00:45:00,
2013-04-04 20:50:00,48.8,33.8,30.11,SE,135,0.0,9.0,56,0.00,,,0.00,Wunderground v.1.15,2013-04-05 00:50:00,
2013-04-04 20:53:00,48.6,33.1,30.10,SE,135,0.0,9.0,55,0.00,,,0.00,Wunderground v.1.15,2013-04-05 00:53:00,
2013-04-04 20:55:00,48.4,33.0,30.10,SE,135,0.0,9.0,55,0.00,,,0.00,Wunderground v.1.15,2013-04-05 00:55:00,
2013-04-04 20:56:00,48.3,33.3,30.10,SE,135,0.0,9.0,56,0.00,,,0.00,Wunderground v.1.15,2013-04-05 00:56:00,
2013-04-04 20:57:00,48.3,33.3,30.11,SE,135,0.0,9.0,56,0.00,,,0.00,Wunderground v.1.15,2013-04-05 00:57:00,
2013-04-04 20:59:00,48.2,33.2,30.11,SE,135,0.0,9.0,56,0.00,,,0.00,Wunderground v.1.15,2013-04-05 00:59:00,
2013-04-04 21:03:00,47.9,32.9,30.11,SW,226,0.0,9.0,56,0.00,,,0.00,Wunderground v.1.15,2013-04-05 01:03:00,
2013-04-04 21:04:00,47.8,32.9,30.11,SW,226,0.0,9.0,56,0.00,,,0.00,Wunderground v.1.15,2013-04-05 01:04:00,
2013-04-04 21:08:00,47.7,32.3,30.11,SW,219,0.0,9.0,55,0.00,,,0.00,Wunderground v.1.15,2013-04-05 01:08:00,
2013-04-04 21:09:00,47.7,32.3,30.11,SW,218,0.0,9.0,55,0.00,,,0.00,Wunderground v.1.15,2013-04-05 01:09:00,
2013-04-04 21:10:00,47.7,32.3,30.11,SW,218,0.0,9.0,55,0.00,,,0.00,Wunderground v.1.15,2013-04-05 01:10:00,
2013-04-04 21:15:00,47.7,32.3,30.11,South,187,0.0,9.0,55,0.00,,,0.00,Wunderground v.1.15,2013-04-05 01:15:00,
2013-04-04 21:17:00,47.6,32.7,30.11,South,178,0.0,9.0,56,0.00,,,0.00,Wunderground v.1.15,2013-04-05 01:17:00,
2013-04-04 21:18:00,47.6,32.7,30.10,SW,216,0.0,9.0,56,0.00,,,0.00,Wunderground v.1.15,2013-04-05 01:18:00,
2013-04-04 21:22:00,47.5,33.0,30.10,SW,216,0.0,9.0,57,0.00,,,0.00,Wunderground v.1.15,2013-04-05 01:22:00,
2013-04-04 21:24:00,47.5,33.0,30.10,SW,216,0.0,9.0,57,0.00,,,0.00,Wunderground v.1.15,2013-04-05 01:24:00,
2013-04-04 21:25:00,47.5,33.0,30.10,SW,216,0.0,9.0,57,0.00,,,0.00,Wunderground v.1.15,2013-04-05 01:25:00,
2013-04-04 21:27:00,47.4,33.4,30.10,SW,216,0.0,9.0,58,0.00,,,0.00,Wunderground v.1.15,2013-04-05 01:27:00,
2013-04-04 21:30:00,47.3,33.7,30.10,SW,216,0.0,9.0,59,0.00,,,0.00,Wunderground v.1.15,2013-04-05 01:30:00,
2013-04-04 21:32:00,47.2,33.6,30.10,SW,216,0.0,9.0,59,0.00,,,0.00,Wunderground v.1.15,2013-04-05 01:32:00,
2013-04-04 21:33:00,47.2,33.6,30.11,SW,216,0.0,9.0,59,0.00,,,0.00,Wunderground v.1.15,2013-04-05 01:33:00,
2013-04-04 21:34:00,47.1,33.9,30.11,SW,217,0.0,9.0,60,0.00,,,0.00,Wunderground v.1.15,2013-04-05 01:34:00,
2013-04-04 21:37:00,47.0,33.8,30.11,SW,217,0.0,9.0,60,0.00,,,0.00,Wunderground v.1.15,2013-04-05 01:37:00,
2013-04-04 21:38:00,46.9,33.7,30.11,SW,217,0.0,9.0,60,0.00,,,0.00,Wunderground v.1.15,2013-04-05 01:38:00,
2013-04-04 21:42:00,46.8,34.0,30.11,SW,217,0.0,9.0,61,0.00,,,0.00,Wunderground v.1.15,2013-04-05 01:42:00,
2013-04-04 21:43:00,46.7,34.0,30.11,SW,217,0.0,9.0,61,0.00,,,0.00,Wunderground v.1.15,2013-04-05 01:43:00,
2013-04-04 21:44:00,46.7,34.0,30.11,SW,217,0.0,9.0,61,0.00,,,0.00,Wunderground v.1.15,2013-04-05 01:44:00,
2013-04-04 21:45:00,46.7,34.0,30.11,SW,217,0.0,9.0,61,0.00,,,0.00,Wunderground v.1.15,2013-04-05 01:45:00,
2013-04-04 21:47:00,46.6,33.9,30.11,SW,217,0.0,9.0,61,0.00,,,0.00,Wunderground v.1.15,2013-04-05 01:47:00,
2013-04-04 21:50:00,46.5,33.8,30.11,SW,217,0.0,9.0,61,0.00,,,0.00,Wunderground v.1.15,2013-04-05 01:50:00,
2013-04-04 21:52:00,46.5,33.8,30.11,SW,216,0.0,9.0,61,0.00,,,0.00,Wunderground v.1.15,2013-04-05 01:52:00,
2013-04-04 21:56:00,46.4,33.7,30.11,SW,216,0.0,9.0,61,0.00,,,0.00,Wunderground v.1.15,2013-04-05 01:56:00,
2013-04-04 21:57:00,46.4,34.1,30.11,SW,216,0.0,9.0,62,0.00,,,0.00,Wunderground v.1.15,2013-04-05 01:57:00,
2013-04-04 22:00:00,46.3,34.0,30.11,SW,216,0.0,9.0,62,0.00,,,0.00,Wunderground v.1.15,2013-04-05 02:00:00,
2013-04-04 22:02:00,46.3,34.0,30.11,SW,216,0.0,9.0,62,0.00,,,0.00,Wunderground v.1.15,2013-04-05 02:02:00,
2013-04-04 22:03:00,46.3,34.0,30.11,SW,216,0.0,9.0,62,0.00,,,0.00,Wunderground v.1.15,2013-04-05 02:03:00,
2013-04-04 22:05:00,46.2,33.9,30.11,SW,216,0.0,9.0,62,0.00,,,0.00,Wunderground v.1.15,2013-04-05 02:05:00,
2013-04-04 22:07:00,46.2,33.9,30.11,SW,216,0.0,9.0,62,0.00,,,0.00,Wunderground v.1.15,2013-04-05 02:07:00,
2013-04-04 22:08:00,46.2,33.9,30.11,SW,216,0.0,9.0,62,0.00,,,0.00,Wunderground v.1.15,2013-04-05 02:08:00,
2013-04-04 22:10:00,46.2,34.3,30.11,SW,216,0.0,9.0,63,0.00,,,0.00,Wunderground v.1.15,2013-04-05 02:10:00,
2013-04-04 22:11:00,46.2,34.3,30.11,SW,216,0.0,9.0,63,0.00,,,0.00,Wunderground v.1.15,2013-04-05 02:11:00,
2013-04-04 22:14:00,46.1,34.6,30.11,SW,216,0.0,9.0,64,0.00,,,0.00,Wunderground v.1.15,2013-04-05 02:14:00,
2013-04-04 22:16:00,46.1,34.6,30.11,SW,216,0.0,9.0,64,0.00,,,0.00,Wunderground v.1.15,2013-04-05 02:16:00,
2013-04-04 22:18:00,46.1,34.6,30.11,SW,216,0.0,9.0,64,0.00,,,0.00,Wunderground v.1.15,2013-04-05 02:18:00,
2013-04-04 22:20:00,46.2,34.7,30.11,SW,216,0.0,9.0,64,0.00,,,0.00,Wunderground v.1.15,2013-04-05 02:20:00,
2013-04-04 22:22:00,46.2,34.7,30.11,SW,216,0.0,9.0,64,0.00,,,0.00,Wunderground v.1.15,2013-04-05 02:22:00,
2013-04-04 22:23:00,46.1,34.6,30.11,SW,216,0.0,9.0,64,0.00,,,0.00,Wunderground v.1.15,2013-04-05 02:23:00,
2013-04-04 22:25:00,46.1,34.6,30.11,SW,216,0.0,9.0,64,0.00,,,0.00,Wunderground v.1.15,2013-04-05 02:25:00,
2013-04-04 22:26:00,46.1,34.6,30.11,SW,216,0.0,9.0,64,0.00,,,0.00,Wunderground v.1.15,2013-04-05 02:26:00,
2013-04-04 22:31:00,46.1,35.0,30.11,SW,216,0.0,9.0,65,0.00,,,0.00,Wunderground v.1.15,2013-04-05 02:31:00,
2013-04-04 22:32:00,46.2,35.1,30.11,SW,216,0.0,9.0,65,0.00,,,0.00,Wunderground v.1.15,2013-04-05 02:32:00,
2013-04-04 22:37:00,46.2,34.7,30.11,SW,216,0.0,9.0,64,0.00,,,0.00,Wunderground v.1.15,2013-04-05 02:37:00,
2013-04-04 22:38:00,46.2,34.7,30.11,SW,216,0.0,9.0,64,0.00,,,0.00,Wunderground v.1.15,2013-04-05 02:38:00,
2013-04-04 22:41:00,46.0,34.1,30.11,SW,216,0.0,9.0,63,0.00,,,0.00,Wunderground v.1.15,2013-04-05 02:41:00,
2013-04-04 22:43:00,45.9,34.0,30.11,SW,216,0.0,9.0,63,0.00,,,0.00,Wunderground v.1.15,2013-04-05 02:43:00,
2013-04-04 22:44:00,45.9,34.4,30.11,SW,216,0.0,9.0,64,0.00,,,0.00,Wunderground v.1.15,2013-04-05 02:44:00,
2013-04-04 22:47:00,45.6,34.5,30.11,SW,216,0.0,9.0,65,0.00,,,0.00,Wunderground v.1.15,2013-04-05 02:47:00,
2013-04-04 22:50:00,45.4,34.7,30.11,SW,216,0.0,9.0,66,0.00,,,0.00,Wunderground v.1.15,2013-04-05 02:50:00,
2013-04-04 22:52:00,45.3,35.0,30.11,SW,216,0.0,9.0,67,0.00,,,0.00,Wunderground v.1.15,2013-04-05 02:52:00,
2013-04-04 22:55:00,45.3,35.0,30.11,SW,216,0.0,9.0,67,0.00,,,0.00,Wunderground v.1.15,2013-04-05 02:55:00,
2013-04-04 22:57:00,45.3,35.0,30.11,SW,216,0.0,9.0,67,0.00,,,0.00,Wunderground v.1.15,2013-04-05 02:57:00,
2013-04-04 23:00:00,45.3,35.0,30.11,SW,216,0.0,9.0,67,0.00,,,0.00,Wunderground v.1.15,2013-04-05 03:00:00,
2013-04-04 23:02:00,45.3,35.4,30.10,SW,216,0.0,9.0,68,0.00,,,0.00,Wunderground v.1.15,2013-04-05 03:02:00,
2013-04-04 23:03:00,45.3,35.4,30.10,SW,216,0.0,9.0,68,0.00,,,0.00,Wunderground v.1.15,2013-04-05 03:03:00,
2013-04-04 23:06:00,45.3,35.4,30.10,SW,216,0.0,9.0,68,0.00,,,0.00,Wunderground v.1.15,2013-04-05 03:06:00,
2013-04-04 23:08:00,45.3,35.4,30.10,SW,216,0.0,9.0,68,0.00,,,0.00,Wunderground v.1.15,2013-04-05 03:08:00,
2013-04-04 23:11:00,45.3,35.4,30.10,SW,216,0.0,9.0,68,0.00,,,0.00,Wunderground v.1.15,2013-04-05 03:11:00,
2013-04-04 23:13:00,45.3,35.4,30.10,SW,216,0.0,9.0,68,0.00,,,0.00,Wunderground v.1.15,2013-04-05 03:13:00,
2013-04-04 23:15:00,45.2,35.6,30.10,SW,216,0.0,9.0,69,0.00,,,0.00,Wunderground v.1.15,2013-04-05 03:15:00,
2013-04-04 23:19:00,45.1,35.5,30.10,SW,216,0.0,9.0,69,0.00,,,0.00,Wunderground v.1.15,2013-04-05 03:19:00,
2013-04-04 23:20:00,45.0,35.4,30.10,SW,216,0.0,9.0,69,0.00,,,0.00,Wunderground v.1.15,2013-04-05 03:20:00,
2013-04-04 23:25:00,45.0,35.8,30.10,SW,216,0.0,9.0,70,0.00,,,0.00,Wunderground v.1.15,2013-04-05 03:25:00,
2013-04-04 23:27:00,45.0,35.8,30.10,SW,216,0.0,9.0,70,0.00,,,0.00,Wunderground v.1.15,2013-04-05 03:27:00,
2013-04-04 23:31:00,44.9,35.7,30.10,SW,216,0.0,9.0,70,0.00,,,0.00,Wunderground v.1.15,2013-04-05 03:31:00,
2013-04-04 23:32:00,44.9,35.7,30.10,SW,216,0.0,9.0,70,0.00,,,0.00,Wunderground v.1.15,2013-04-05 03:32:00,
2013-04-04 23:33:00,44.9,35.7,30.10,SW,216,0.0,9.0,70,0.00,,,0.00,Wunderground v.1.15,2013-04-05 03:33:00,
2013-04-04 23:38:00,44.8,36.0,30.10,SW,216,0.0,9.0,71,0.00,,,0.00,Wunderground v.1.15,2013-04-05 03:38:00,
2013-04-04 23:41:00,44.7,35.5,30.10,SW,216,0.0,9.0,70,0.00,,,0.00,Wunderground v.1.15,2013-04-05 03:41:00,
2013-04-04 23:42:00,44.6,35.4,30.10,SW,216,0.0,9.0,70,0.00,,,0.00,Wunderground v.1.15,2013-04-05 03:42:00,
2013-04-04 23:43:00,44.6,35.8,30.10,SW,216,0.0,9.0,71,0.00,,,0.00,Wunderground v.1.15,2013-04-05 03:43:00,
2013-04-04 23:47:00,44.5,35.7,30.10,SW,216,0.0,9.0,71,0.00,,,0.00,Wunderground v.1.15,2013-04-05 03:47:00,
2013-04-04 23:49:00,44.4,35.6,30.10,SW,216,0.0,9.0,71,0.00,,,0.00,Wunderground v.1.15,2013-04-05 03:49:00,
2013-04-04 23:50:00,44.3,35.5,30.10,SW,216,0.0,9.0,71,0.00,,,0.00,Wunderground v.1.15,2013-04-05 03:50:00,
2013-04-04 23:51:00,44.3,35.5,30.10,SW,216,0.0,9.0,71,0.00,,,0.00,Wunderground v.1.15,2013-04-05 03:51:00,
2013-04-04 23:55:00,44.1,35.6,30.10,SW,216,0.0,9.0,72,0.00,,,0.00,Wunderground v.1.15,2013-04-05 03:55:00,
2013-04-04 23:56:00,44.0,35.2,30.10,SW,216,0.0,9.0,71,0.00,,,0.00,Wunderground v.1.15,2013-04-05 03:56:00,
2013-04-04 23:58:00,43.9,35.1,30.10,SW,216,0.0,9.0,71,0.00,,,0.00,Wunderground v.1.15,2013-04-05 03:58:00,